Wetterdaten: Sonntag, 30.04.2017
Datum Zeit Temp. Aussen Temp. o. S. +5cm Feuchte Auss BlattFeu 1 Luftdruck Regen Sonnenschein Regendauer Solar Windben Empfang
30.04.2017 00:00 7,9 C 7,2 C 4,4 C 64 % 0 lf 1015,5 hPa 0,0 l/m 0 min 0 min 0 W/m 10,5 km/h (2 Bft) 95,65 %
30.04.2017 00:02 7,9 C 7,2 C 4,4 C 64 % 0 lf 1015,4 hPa 0,0 l/m 0 min 0 min 0 W/m 10,5 km/h (2 Bft) 90,91 %
30.04.2017 00:04 7,8 C 7,2 C 4,4 C 65 % 0 lf 1015,5 hPa 0,0 l/m 0 min 0 min 0 W/m 6,3 km/h (2 Bft) 93,62 %
30.04.2017 00:06 7,8 C 7,2 C 4,4 C 65 % 0 lf 1015,4 hPa 0,0 l/m 0 min 0 min 0 W/m 6,3 km/h (2 Bft) 91,49 %
30.04.2017 00:10 7,7 C 6,7 C 3,9 C 65 % 0 lf 1015,4 hPa 0,0 l/m 0 min 0 min 0 W/m 10,5 km/h (2 Bft) 95,74 %
30.04.2017 00:12 7,7 C 6,7 C 3,9 C 65 % 0 lf 1015,4 hPa 0,0 l/m 0 min 0 min 0 W/m 10,5 km/h (2 Bft) 95,74 %
30.04.2017 00:14 7,7 C 6,7 C 3,9 C 65 % 0 lf 1015,4 hPa 0,0 l/m 0 min 0 min 0 W/m 10,5 km/h (2 Bft) 93,62 %
30.04.2017 00:16 7,7 C 7,2 C 3,9 C 65 % 0 lf 1015,4 hPa 0,0 l/m 0 min 0 min 0 W/m 10,5 km/h (2 Bft) 95,74 %
30.04.2017 00:18 7,6 C 6,7 C 3,9 C 66 % 0 lf 1015,4 hPa 0,0 l/m 0 min 0 min 0 W/m 10,5 km/h (2 Bft) 93,62 %
30.04.2017 00:20 7,6 C 6,7 C 4,4 C 65 % 0 lf 1015,4 hPa 0,0 l/m 0 min 0 min 0 W/m 10,5 km/h (2 Bft) 97,87 %
30.04.2017 00:22 7,5 C 7,2 C 4,4 C 66 % 0 lf 1015,4 hPa 0,0 l/m 0 min 0 min 0 W/m 10,5 km/h (2 Bft) 93,48 %
30.04.2017 00:24 7,4 C 7,2 C 4,4 C 66 % 0 lf 1015,5 hPa 0,0 l/m 0 min 0 min 0 W/m 12,6 km/h (3 Bft) 97,87 %
30.04.2017 00:26 7,4 C 7,2 C 4,4 C 66 % 0 lf 1015,4 hPa 0,0 l/m 0 min 0 min 0 W/m 10,5 km/h (2 Bft) 95,74 %
30.04.2017 00:28 7,4 C 6,7 C 4,4 C 66 % 0 lf 1015,4 hPa 0,0 l/m 0 min 0 min 0 W/m 10,5 km/h (2 Bft) 97,87 %
30.04.2017 00:30 7,3 C 6,7 C 4,4 C 66 % 0 lf 1015,4 hPa 0,0 l/m 0 min 0 min 0 W/m 6,3 km/h (2 Bft) 95,74 %
30.04.2017 00:32 7,3 C 6,7 C 4,4 C 67 % 0 lf 1015,4 hPa 0,0 l/m 0 min 0 min 0 W/m 6,3 km/h (2 Bft) 97,87 %
30.04.2017 00:34 7,3 C 6,7 C 4,4 C 67 % 0 lf 1015,4 hPa 0,0 l/m 0 min 0 min 0 W/m 6,3 km/h (2 Bft) 97,83 %
30.04.2017 00:36 7,2 C 6,7 C 3,9 C 67 % 0 lf 1015,4 hPa 0,0 l/m 0 min 0 min 0 W/m 10,5 km/h (2 Bft) 100,00 %
30.04.2017 00:38 7,2 C 6,7 C 3,9 C 67 % 0 lf 1015,4 hPa 0,0 l/m 0 min 0 min 0 W/m 6,3 km/h (2 Bft) 97,87 %
30.04.2017 00:40 7,2 C 6,7 C 4,4 C 67 % 0 lf 1015,4 hPa 0,0 l/m 0 min 0 min 0 W/m 10,5 km/h (2 Bft) 95,74 %
30.04.2017 00:42 7,2 C 6,7 C 3,9 C 67 % 0 lf 1015,4 hPa 0,0 l/m 0 min 0 min 0 W/m 8,4 km/h (2 Bft) 100,00 %
30.04.2017 00:44 7,1 C 6,7 C 3,9 C 67 % 0 lf 1015,3 hPa 0,0 l/m 0 min 0 min 0 W/m 10,5 km/h (2 Bft) 100,00 %
30.04.2017 00:46 7,1 C 6,7 C 3,9 C 67 % 0 lf 1015,3 hPa 0,0 l/m 0 min 0 min 0 W/m 8,4 km/h (2 Bft) 97,83 %
30.04.2017 00:48 7,1 C 6,7 C 3,9 C 67 % 0 lf 1015,3 hPa 0,0 l/m 0 min 0 min 0 W/m 10,5 km/h (2 Bft) 100,00 %
30.04.2017 00:50 7,0 C 6,7 C 3,9 C 68 % 0 lf 1015,3 hPa 0,0 l/m 0 min 0 min 0 W/m 6,3 km/h (2 Bft) 95,74 %
30.04.2017 00:52 7,0 C 6,1 C 3,9 C 67 % 0 lf 1015,3 hPa 0,0 l/m 0 min 0 min 0 W/m 6,3 km/h (2 Bft) 97,87 %
30.04.2017 00:54 6,9 C 6,1 C 3,3 C 67 % 0 lf 1015,2 hPa 0,0 l/m 0 min 0 min 0 W/m 4,2 km/h (1 Bft) 95,74 %
30.04.2017 00:56 6,9 C 6,1 C 3,3 C 67 % 0 lf 1015,3 hPa 0,0 l/m 0 min 0 min 0 W/m 6,3 km/h (2 Bft) 97,83 %
30.04.2017 00:58 6,9 C 6,1 C 3,3 C 68 % 0 lf 1015,3 hPa 0,0 l/m 0 min 0 min 0 W/m 8,4 km/h (2 Bft) 97,87 %
30.04.2017 01:00 6,9 C 5,6 C 2,8 C 68 % 0 lf 1015,2 hPa 0,0 l/m 0 min 0 min 0 W/m 6,3 km/h (2 Bft) 95,74 %
30.04.2017 01:02 6,8 C 5,6 C 2,8 C 68 % 0 lf 1015,2 hPa 0,0 l/m 0 min 0 min 0 W/m 6,3 km/h (2 Bft) 100,00 %
30.04.2017 01:04 6,8 C 5,6 C 2,8 C 68 % 0 lf 1015,3 hPa 0,0 l/m 0 min 0 min 0 W/m 6,3 km/h (2 Bft) 97,87 %
30.04.2017 01:06 6,8 C 5,6 C 2,8 C 68 % 0 lf 1015,2 hPa 0,0 l/m 0 min 0 min 0 W/m 6,3 km/h (2 Bft) 95,74 %
30.04.2017 01:08 6,7 C 5,6 C 2,8 C 68 % 0 lf 1015,3 hPa 0,0 l/m 0 min 0 min 0 W/m 8,4 km/h (2 Bft) 91,30 %
30.04.2017 01:10 6,7 C 6,1 C 2,8 C 68 % 0 lf 1015,2 hPa 0,0 l/m 0 min 0 min 0 W/m 8,4 km/h (2 Bft) 93,62 %
30.04.2017 01:12 6,7 C 6,1 C 3,3 C 68 % 0 lf 1015,2 hPa 0,0 l/m 0 min 0 min 0 W/m 10,5 km/h (2 Bft) 95,74 %
30.04.2017 01:14 6,6 C 5,6 C 3,3 C 68 % 0 lf 1015,2 hPa 0,0 l/m 0 min 0 min 0 W/m 10,5 km/h (2 Bft) 95,74 %
30.04.2017 01:16 6,6 C 5,6 C 3,3 C 68 % 0 lf 1015,2 hPa 0,0 l/m 0 min 0 min 0 W/m 6,3 km/h (2 Bft) 95,74 %
30.04.2017 01:18 6,6 C 5,6 C 3,3 C 69 % 0 lf 1015,1 hPa 0,0 l/m 0 min 0 min 0 W/m 6,3 km/h (2 Bft) 95,74 %
30.04.2017 01:20 6,5 C 5,6 C 2,8 C 69 % 0 lf 1015,0 hPa 0,0 l/m 0 min 0 min 0 W/m 6,3 km/h (2 Bft) 95,65 %
30.04.2017 01:22 6,5 C 5,6 C 2,8 C 69 % 0 lf 1015,0 hPa 0,0 l/m 0 min 0 min 0 W/m 10,5 km/h (2 Bft) 93,62 %
30.04.2017 01:24 6,4 C 5,6 C 2,8 C 69 % 0 lf 1015,0 hPa 0,0 l/m 0 min 0 min 0 W/m 6,3 km/h (2 Bft) 95,74 %
30.04.2017 01:26 6,4 C 5,6 C 2,8 C 69 % 0 lf 1015,0 hPa 0,0 l/m 0 min 0 min 0 W/m 6,3 km/h (2 Bft) 91,49 %
30.04.2017 01:28 6,4 C 5,6 C 2,8 C 69 % 0 lf 1015,0 hPa 0,0 l/m 0 min 0 min 0 W/m 10,5 km/h (2 Bft) 91,49 %
30.04.2017 01:30 6,4 C 5,6 C 2,8 C 69 % 0 lf 1015,0 hPa 0,0 l/m 0 min 0 min 0 W/m 10,5 km/h (2 Bft) 93,62 %
30.04.2017 01:32 6,3 C 5,6 C 2,8 C 69 % 0 lf 1015,0 hPa 0,0 l/m 0 min 0 min 0 W/m 10,5 km/h (2 Bft) 95,65 %
30.04.2017 01:34 6,3 C 5,6 C 2,8 C 69 % 0 lf 1015,0 hPa 0,0 l/m 0 min 0 min 0 W/m 10,5 km/h (2 Bft) 95,74 %
30.04.2017 01:36 6,3 C 5,6 C 2,8 C 69 % 0 lf 1014,9 hPa 0,0 l/m 0 min 0 min 0 W/m 10,5 km/h (2 Bft) 97,87 %
30.04.2017 01:38 6,2 C 5,6 C 2,8 C 69 % 0 lf 1014,9 hPa 0,0 l/m 0 min 0 min 0 W/m 10,5 km/h (2 Bft) 97,87 %
30.04.2017 01:40 6,2 C 5,6 C 2,8 C 70 % 0 lf 1014,9 hPa 0,0 l/m 0 min 0 min 0 W/m 6,3 km/h (2 Bft) 93,62 %
30.04.2017 01:42 6,2 C 5,6 C 2,8 C 70 % 0 lf 1014,9 hPa 0,0 l/m 0 min 0 min 0 W/m 6,3 km/h (2 Bft) 97,83 %
30.04.2017 01:44 6,1 C 5,6 C 2,8 C 70 % 0 lf 1014,9 hPa 0,0 l/m 0 min 0 min 0 W/m 4,2 km/h (1 Bft) 97,87 %
30.04.2017 01:46 6,1 C 5,6 C 2,8 C 70 % 0 lf 1014,9 hPa 0,0 l/m 0 min 0 min 0 W/m 4,2 km/h (1 Bft) 95,74 %
30.04.2017 01:48 6,1 C 5,6 C 2,2 C 70 % 0 lf 1014,9 hPa 0,0 l/m 0 min 0 min 0 W/m 2,1 km/h (1 Bft) 93,62 %
30.04.2017 01:50 6,1 C 5,6 C 2,2 C 70 % 0 lf 1014,9 hPa 0,0 l/m 0 min 0 min 0 W/m 4,2 km/h (1 Bft) 97,87 %
30.04.2017 01:52 6,0 C 5,6 C 2,2 C 70 % 0 lf 1014,9 hPa 0,0 l/m 0 min 0 min 0 W/m 2,1 km/h (1 Bft) 95,74 %
30.04.2017 01:54 6,0 C 5,0 C 2,2 C 70 % 0 lf 1014,9 hPa 0,0 l/m 0 min 0 min 0 W/m 4,2 km/h (1 Bft) 97,83 %
30.04.2017 01:56 5,9 C 5,0 C 1,7 C 70 % 0 lf 1014,9 hPa 0,0 l/m 0 min 0 min 0 W/m 6,3 km/h (2 Bft) 97,87 %
30.04.2017 01:58 5,9 C 5,6 C 1,7 C 71 % 0 lf 1014,9 hPa 0,0 l/m 0 min 0 min 0 W/m 6,3 km/h (2 Bft) 95,74 %
30.04.2017 02:00 5,9 C 5,0 C 1,7 C 71 % 0 lf 1014,9 hPa 0,0 l/m 0 min 0 min 0 W/m 6,3 km/h (2 Bft) 89,36 %
30.04.2017 02:02 5,9 C 5,0 C 1,7 C 71 % 0 lf 1014,9 hPa 0,0 l/m 0 min 0 min 4 W/m 4,2 km/h (1 Bft) 93,62 %
30.04.2017 02:04 5,8 C 5,0 C 1,7 C 71 % 0 lf 1014,9 hPa 0,0 l/m 0 min 0 min 5 W/m 2,1 km/h (1 Bft) 95,74 %
30.04.2017 02:06 5,8 C 5,0 C 1,7 C 71 % 0 lf 1014,8 hPa 0,0 l/m 0 min 0 min 5 W/m 4,2 km/h (1 Bft) 93,48 %
30.04.2017 02:08 5,8 C 4,4 C 1,7 C 71 % 0 lf 1014,9 hPa 0,0 l/m 0 min 0 min 3 W/m 4,2 km/h (1 Bft) 95,74 %
30.04.2017 02:10 5,7 C 4,4 C 1,7 C 71 % 0 lf 1014,8 hPa 0,0 l/m 0 min 0 min 2 W/m 6,3 km/h (2 Bft) 95,74 %
30.04.2017 02:12 5,7 C 4,4 C 1,7 C 71 % 0 lf 1014,8 hPa 0,0 l/m 0 min 0 min 0 W/m 4,2 km/h (1 Bft) 95,74 %
30.04.2017 02:14 5,7 C 4,4 C 1,7 C 71 % 0 lf 1014,8 hPa 0,0 l/m 0 min 0 min 0 W/m 6,3 km/h (2 Bft) 91,49 %
30.04.2017 02:16 5,6 C 4,4 C 1,7 C 71 % 0 lf 1014,8 hPa 0,0 l/m 0 min 0 min 0 W/m 6,3 km/h (2 Bft) 95,74 %
30.04.2017 02:18 5,6 C 3,9 C 1,7 C 71 % 0 lf 1014,8 hPa 0,0 l/m 0 min 0 min 0 W/m 4,2 km/h (1 Bft) 91,30 %
30.04.2017 02:20 5,5 C 4,4 C 1,7 C 71 % 0 lf 1014,8 hPa 0,0 l/m 0 min 0 min 0 W/m 6,3 km/h (2 Bft) 95,74 %
30.04.2017 02:22 5,5 C 3,9 C 1,7 C 71 % 0 lf 1014,8 hPa 0,0 l/m 0 min 0 min 0 W/m 2,1 km/h (1 Bft) 95,74 %
30.04.2017 02:24 5,4 C 3,9 C 1,7 C 71 % 0 lf 1014,7 hPa 0,0 l/m 0 min 0 min 5 W/m 4,2 km/h (1 Bft) 93,62 %
30.04.2017 02:26 5,4 C 3,9 C 1,7 C 72 % 0 lf 1014,7 hPa 0,0 l/m 0 min 0 min 5 W/m 6,3 km/h (2 Bft) 97,87 %
30.04.2017 02:28 5,4 C 3,9 C 1,7 C 72 % 0 lf 1014,7 hPa 0,0 l/m 0 min 0 min 5 W/m 6,3 km/h (2 Bft) 95,74 %
30.04.2017 02:30 5,3 C 3,9 C 1,7 C 72 % 0 lf 1014,7 hPa 0,0 l/m 0 min 0 min 2 W/m 6,3 km/h (2 Bft) 97,83 %
30.04.2017 02:32 5,3 C 3,9 C 1,7 C 72 % 0 lf 1014,7 hPa 0,0 l/m 0 min 0 min 2 W/m 10,5 km/h (2 Bft) 97,87 %
30.04.2017 02:34 5,2 C 3,9 C 1,7 C 72 % 0 lf 1014,7 hPa 0,0 l/m 0 min 0 min 5 W/m 10,5 km/h (2 Bft) 95,74 %
30.04.2017 02:36 5,2 C 3,9 C 1,7 C 73 % 0 lf 1014,7 hPa 0,0 l/m 0 min 0 min 5 W/m 6,3 km/h (2 Bft) 95,74 %
30.04.2017 02:38 5,2 C 3,9 C 1,7 C 73 % 0 lf 1014,7 hPa 0,0 l/m 0 min 0 min 3 W/m 8,4 km/h (2 Bft) 97,87 %
30.04.2017 02:40 5,1 C 4,4 C 1,7 C 73 % 0 lf 1014,7 hPa 0,0 l/m 0 min 0 min 0 W/m 10,5 km/h (2 Bft) 95,74 %
30.04.2017 02:42 5,1 C 4,4 C 1,7 C 73 % 0 lf 1014,7 hPa 0,0 l/m 0 min 0 min 0 W/m 10,5 km/h (2 Bft) 97,83 %
30.04.2017 02:44 5,1 C 4,4 C 1,7 C 73 % 0 lf 1014,7 hPa 0,0 l/m 0 min 0 min 0 W/m 10,5 km/h (2 Bft) 97,87 %
30.04.2017 02:46 5,1 C 4,4 C 2,2 C 73 % 0 lf 1014,7 hPa 0,0 l/m 0 min 0 min 0 W/m 8,4 km/h (2 Bft) 95,74 %
30.04.2017 02:48 5,0 C 4,4 C 1,7 C 73 % 0 lf 1014,7 hPa 0,0 l/m 0 min 0 min 0 W/m 8,4 km/h (2 Bft) 97,87 %
30.04.2017 02:50 5,0 C 5,0 C 2,2 C 73 % 0 lf 1014,7 hPa 0,0 l/m 0 min 0 min 0 W/m 8,4 km/h (2 Bft) 95,74 %
30.04.2017 02:52 5,0 C 5,0 C 2,2 C 74 % 0 lf 1014,6 hPa 0,0 l/m 0 min 0 min 0 W/m 8,4 km/h (2 Bft) 91,49 %
30.04.2017 02:54 4,9 C 5,0 C 2,2 C 74 % 0 lf 1014,7 hPa 0,0 l/m 0 min 0 min 0 W/m 8,4 km/h (2 Bft) 97,83 %
30.04.2017 02:56 4,9 C 5,0 C 2,2 C 74 % 0 lf 1014,7 hPa 0,0 l/m 0 min 0 min 0 W/m 10,5 km/h (2 Bft) 95,74 %
30.04.2017 02:58 4,9 C 5,0 C 2,2 C 74 % 0 lf 1014,6 hPa 0,0 l/m 0 min 0 min 0 W/m 12,6 km/h (3 Bft) 93,62 %
30.04.2017 03:00 4,9 C 5,0 C 2,2 C 74 % 0 lf 1014,5 hPa 0,0 l/m 0 min 0 min 0 W/m 12,6 km/h (3 Bft) 95,74 %
30.04.2017 03:02 4,9 C 5,0 C 2,2 C 74 % 0 lf 1014,6 hPa 0,0 l/m 0 min 0 min 0 W/m 10,5 km/h (2 Bft) 93,62 %
30.04.2017 03:04 4,9 C 5,0 C 2,8 C 74 % 0 lf 1014,5 hPa 0,0 l/m 0 min 0 min 0 W/m 6,3 km/h (2 Bft) 97,83 %
30.04.2017 03:06 4,9 C 5,0 C 2,2 C 74 % 0 lf 1014,6 hPa 0,0 l/m 0 min 0 min 0 W/m 8,4 km/h (2 Bft) 97,87 %
30.04.2017 03:08 4,9 C 5,0 C 2,2 C 74 % 0 lf 1014,6 hPa 0,0 l/m 0 min 0 min 0 W/m 6,3 km/h (2 Bft) 89,36 %
30.04.2017 03:10 4,9 C 5,0 C 2,2 C 74 % 0 lf 1014,5 hPa 0,0 l/m 0 min 0 min 0 W/m 8,4 km/h (2 Bft) 95,74 %
30.04.2017 03:12 4,9 C 5,0 C 2,2 C 74 % 0 lf 1014,6 hPa 0,0 l/m 0 min 0 min 0 W/m 4,2 km/h (1 Bft) 97,87 %
30.04.2017 03:14 4,9 C 5,0 C 2,8 C 74 % 0 lf 1014,6 hPa 0,0 l/m 0 min 0 min 0 W/m 8,4 km/h (2 Bft) 97,87 %
30.04.2017 03:16 4,9 C 5,6 C 2,8 C 74 % 0 lf 1014,6 hPa 0,0 l/m 0 min 0 min 0 W/m 10,5 km/h (2 Bft) 93,48 %
30.04.2017 03:18 4,9 C 5,6 C 2,2 C 74 % 0 lf 1014,6 hPa 0,0 l/m 0 min 0 min 0 W/m 8,4 km/h (2 Bft) 91,49 %
30.04.2017 03:20 4,9 C 5,0 C 2,2 C 74 % 0 lf 1014,5 hPa 0,0 l/m 0 min 0 min 0 W/m 10,5 km/h (2 Bft) 95,74 %
30.04.2017 03:22 4,9 C 5,0 C 2,2 C 74 % 0 lf 1014,4 hPa 0,0 l/m 0 min 0 min 0 W/m 10,5 km/h (2 Bft) 95,74 %
30.04.2017 03:24 4,9 C 5,0 C 2,2 C 74 % 0 lf 1014,5 hPa 0,0 l/m 0 min 0 min 0 W/m 10,5 km/h (2 Bft) 93,62 %
30.04.2017 03:26 4,9 C 5,0 C 2,2 C 73 % 0 lf 1014,5 hPa 0,0 l/m 0 min 0 min 0 W/m 8,4 km/h (2 Bft) 97,87 %
30.04.2017 03:28 4,9 C 5,0 C 1,7 C 73 % 0 lf 1014,5 hPa 0,0 l/m 0 min 0 min 0 W/m 6,3 km/h (2 Bft) 97,83 %
30.04.2017 03:30 4,9 C 4,4 C 1,7 C 73 % 0 lf 1014,4 hPa 0,0 l/m 0 min 0 min 0 W/m 8,4 km/h (2 Bft) 97,87 %
30.04.2017 03:32 4,9 C 5,0 C 2,2 C 73 % 0 lf 1014,4 hPa 0,0 l/m 0 min 0 min 0 W/m 8,4 km/h (2 Bft) 95,74 %
30.04.2017 03:34 4,9 C 5,0 C 1,7 C 73 % 0 lf 1014,4 hPa 0,0 l/m 0 min 0 min 0 W/m 6,3 km/h (2 Bft) 97,87 %
30.04.2017 03:36 4,9 C 5,0 C 1,7 C 73 % 0 lf 1014,5 hPa 0,0 l/m 0 min 0 min 2 W/m 8,4 km/h (2 Bft) 95,74 %
30.04.2017 03:38 4,9 C 5,0 C 1,7 C 73 % 0 lf 1014,4 hPa 0,0 l/m 0 min 0 min 3 W/m 8,4 km/h (2 Bft) 95,74 %
30.04.2017 03:40 4,9 C 5,0 C 1,7 C 73 % 0 lf 1014,4 hPa 0,0 l/m 0 min 0 min 0 W/m 6,3 km/h (2 Bft) 95,65 %
30.04.2017 03:42 4,9 C 5,0 C 1,7 C 73 % 0 lf 1014,5 hPa 0,0 l/m 0 min 0 min 0 W/m 6,3 km/h (2 Bft) 95,74 %
30.04.2017 03:44 4,9 C 4,4 C 1,7 C 73 % 0 lf 1014,4 hPa 0,0 l/m 0 min 0 min 0 W/m 8,4 km/h (2 Bft) 95,74 %
30.04.2017 03:46 4,9 C 4,4 C 1,7 C 73 % 0 lf 1014,5 hPa 0,0 l/m 0 min 0 min 0 W/m 6,3 km/h (2 Bft) 93,62 %
30.04.2017 03:48 4,9 C 4,4 C 1,1 C 73 % 0 lf 1014,4 hPa 0,0 l/m 0 min 0 min 0 W/m 6,3 km/h (2 Bft) 95,74 %
30.04.2017 03:50 4,9 C 4,4 C 1,1 C 73 % 0 lf 1014,4 hPa 0,0 l/m 0 min 0 min 0 W/m 8,4 km/h (2 Bft) 95,74 %
30.04.2017 03:52 4,9 C 4,4 C 1,1 C 73 % 0 lf 1014,4 hPa 0,0 l/m 0 min 0 min 0 W/m 8,4 km/h (2 Bft) 95,65 %
30.04.2017 03:54 4,8 C 4,4 C 1,7 C 73 % 0 lf 1014,4 hPa 0,0 l/m 0 min 0 min 0 W/m 6,3 km/h (2 Bft) 93,62 %
30.04.2017 03:56 4,8 C 4,4 C 1,7 C 73 % 0 lf 1014,4 hPa 0,0 l/m 0 min 0 min 0 W/m 6,3 km/h (2 Bft) 93,62 %
30.04.2017 03:58 4,8 C 4,4 C 1,1 C 74 % 0 lf 1014,4 hPa 0,0 l/m 0 min 0 min 0 W/m 6,3 km/h (2 Bft) 95,74 %
30.04.2017 04:00 4,8 C 4,4 C 1,1 C 74 % 0 lf 1014,4 hPa 0,0 l/m 0 min 0 min 0 W/m 6,3 km/h (2 Bft) 93,62 %
30.04.2017 04:02 4,7 C 4,4 C 1,1 C 74 % 0 lf 1014,3 hPa 0,0 l/m 0 min 0 min 0 W/m 4,2 km/h (1 Bft) 100,00 %
30.04.2017 04:04 4,7 C 4,4 C 1,1 C 74 % 0 lf 1014,3 hPa 0,0 l/m 0 min 0 min 5 W/m 6,3 km/h (2 Bft) 97,87 %
30.04.2017 04:06 4,7 C 4,4 C 1,1 C 74 % 0 lf 1014,3 hPa 0,0 l/m 0 min 0 min 5 W/m 6,3 km/h (2 Bft) 93,62 %
30.04.2017 04:08 4,7 C 4,4 C 1,1 C 74 % 0 lf 1014,3 hPa 0,0 l/m 0 min 0 min 0 W/m 4,2 km/h (1 Bft) 97,87 %
30.04.2017 04:10 4,7 C 4,4 C 1,1 C 74 % 0 lf 1014,3 hPa 0,0 l/m 0 min 0 min 0 W/m 6,3 km/h (2 Bft) 93,62 %
30.04.2017 04:12 4,7 C 4,4 C 1,1 C 74 % 0 lf 1014,3 hPa 0,0 l/m 0 min 0 min 0 W/m 6,3 km/h (2 Bft) 97,87 %
30.04.2017 04:14 4,6 C 4,4 C 1,1 C 74 % 0 lf 1014,2 hPa 0,0 l/m 0 min 0 min 0 W/m 6,3 km/h (2 Bft) 97,83 %
30.04.2017 04:16 4,6 C 4,4 C 0,6 C 74 % 0 lf 1014,3 hPa 0,0 l/m 0 min 0 min 0 W/m 6,3 km/h (2 Bft) 97,87 %
30.04.2017 04:18 4,6 C 4,4 C 0,6 C 74 % 0 lf 1014,3 hPa 0,0 l/m 0 min 0 min 0 W/m 8,4 km/h (2 Bft) 97,87 %
30.04.2017 04:20 4,6 C 3,9 C 0,6 C 74 % 0 lf 1014,3 hPa 0,0 l/m 0 min 0 min 0 W/m 6,3 km/h (2 Bft) 97,87 %
30.04.2017 04:22 4,5 C 3,9 C 0,6 C 74 % 0 lf 1014,3 hPa 0,0 l/m 0 min 0 min 0 W/m 6,3 km/h (2 Bft) 100,00 %
30.04.2017 04:24 4,5 C 3,9 C 0,6 C 74 % 0 lf 1014,2 hPa 0,0 l/m 0 min 0 min 0 W/m 6,3 km/h (2 Bft) 97,87 %
30.04.2017 04:26 4,5 C 3,9 C 0,6 C 74 % 0 lf 1014,2 hPa 0,0 l/m 0 min 0 min 0 W/m 6,3 km/h (2 Bft) 100,00 %
30.04.2017 04:28 4,4 C 4,4 C 0,6 C 74 % 0 lf 1014,1 hPa 0,0 l/m 0 min 0 min 0 W/m 8,4 km/h (2 Bft) 97,87 %
30.04.2017 04:30 4,4 C 4,4 C 1,1 C 74 % 0 lf 1014,2 hPa 0,0 l/m 0 min 0 min 0 W/m 10,5 km/h (2 Bft) 100,00 %
30.04.2017 04:32 4,4 C 3,9 C 1,1 C 74 % 0 lf 1014,2 hPa 0,0 l/m 0 min 0 min 0 W/m 6,3 km/h (2 Bft) 100,00 %
30.04.2017 04:34 4,4 C 3,9 C 1,1 C 75 % 0 lf 1014,1 hPa 0,0 l/m 0 min 0 min 0 W/m 8,4 km/h (2 Bft) 97,87 %
30.04.2017 04:36 4,3 C 3,9 C 1,1 C 75 % 0 lf 1014,1 hPa 0,0 l/m 0 min 0 min 0 W/m 6,3 km/h (2 Bft) 100,00 %
30.04.2017 04:38 4,3 C 3,9 C 1,1 C 75 % 0 lf 1014,1 hPa 0,0 l/m 0 min 0 min 0 W/m 6,3 km/h (2 Bft) 100,00 %
30.04.2017 04:40 4,3 C 3,9 C 1,1 C 75 % 0 lf 1014,1 hPa 0,0 l/m 0 min 0 min 0 W/m 6,3 km/h (2 Bft) 95,74 %
30.04.2017 04:42 4,3 C 3,9 C 0,6 C 75 % 0 lf 1014,1 hPa 0,0 l/m 0 min 0 min 0 W/m 6,3 km/h (2 Bft) 100,00 %
30.04.2017 04:44 4,3 C 3,9 C 0,6 C 75 % 0 lf 1014,1 hPa 0,0 l/m 0 min 0 min 0 W/m 6,3 km/h (2 Bft) 100,00 %
30.04.2017 04:46 4,2 C 3,9 C 0,6 C 75 % 0 lf 1014,1 hPa 0,0 l/m 0 min 0 min 0 W/m 10,5 km/h (2 Bft) 97,87 %
30.04.2017 04:48 4,2 C 3,3 C 0,6 C 75 % 0 lf 1014,0 hPa 0,0 l/m 0 min 0 min 0 W/m 6,3 km/h (2 Bft) 97,87 %
30.04.2017 04:50 4,2 C 3,3 C 0,6 C 75 % 0 lf 1014,0 hPa 0,0 l/m 0 min 0 min 0 W/m 6,3 km/h (2 Bft) 100,00 %
30.04.2017 04:52 4,2 C 2,8 C 0,6 C 75 % 0 lf 1014,1 hPa 0,0 l/m 0 min 0 min 0 W/m 6,3 km/h (2 Bft) 100,00 %
30.04.2017 04:54 4,1 C 2,8 C 0,6 C 75 % 0 lf 1014,0 hPa 0,0 l/m 0 min 0 min 0 W/m 4,2 km/h (1 Bft) 100,00 %
30.04.2017 04:56 4,1 C 2,8 C 0,6 C 75 % 0 lf 1014,0 hPa 0,0 l/m 0 min 0 min 0 W/m 4,2 km/h (1 Bft) 95,74 %
30.04.2017 04:58 4,1 C 2,8 C 0,6 C 75 % 0 lf 1014,0 hPa 0,0 l/m 0 min 0 min 0 W/m 4,2 km/h (1 Bft) 97,87 %
30.04.2017 05:00 4,1 C 2,8 C 0,6 C 75 % 0 lf 1014,0 hPa 0,0 l/m 0 min 0 min 0 W/m 4,2 km/h (1 Bft) 100,00 %
30.04.2017 05:02 4,0 C 2,8 C 0,0 C 75 % 0 lf 1014,0 hPa 0,0 l/m 0 min 0 min 0 W/m 10,5 km/h (2 Bft) 97,83 %
30.04.2017 05:04 4,0 C 2,8 C 0,6 C 75 % 0 lf 1013,9 hPa 0,0 l/m 0 min 0 min 0 W/m 6,3 km/h (2 Bft) 100,00 %
30.04.2017 05:06 3,9 C 3,3 C 0,6 C 75 % 0 lf 1013,9 hPa 0,0 l/m 0 min 0 min 0 W/m 6,3 km/h (2 Bft) 100,00 %
30.04.2017 05:08 3,9 C 2,8 C 0,6 C 75 % 0 lf 1013,9 hPa 0,0 l/m 0 min 0 min 0 W/m 6,3 km/h (2 Bft) 100,00 %
30.04.2017 05:10 3,9 C 2,8 C 0,6 C 75 % 0 lf 1014,0 hPa 0,0 l/m 0 min 0 min 0 W/m 6,3 km/h (2 Bft) 100,00 %
30.04.2017 05:12 3,9 C 3,3 C 0,6 C 75 % 0 lf 1013,9 hPa 0,0 l/m 0 min 0 min 0 W/m 8,4 km/h (2 Bft) 100,00 %
30.04.2017 05:14 3,8 C 3,3 C 0,0 C 75 % 0 lf 1013,9 hPa 0,0 l/m 0 min 0 min 0 W/m 6,3 km/h (2 Bft) 100,00 %
30.04.2017 05:16 3,8 C 3,3 C 0,0 C 76 % 0 lf 1013,9 hPa 0,0 l/m 0 min 0 min 0 W/m 6,3 km/h (2 Bft) 100,00 %
30.04.2017 05:18 3,8 C 3,3 C 0,6 C 76 % 0 lf 1013,9 hPa 0,0 l/m 0 min 0 min 0 W/m 8,4 km/h (2 Bft) 97,87 %
30.04.2017 05:20 3,7 C 3,3 C 0,6 C 76 % 0 lf 1013,9 hPa 0,0 l/m 0 min 0 min 0 W/m 8,4 km/h (2 Bft) 97,87 %
30.04.2017 05:22 3,7 C 3,3 C 0,6 C 76 % 0 lf 1013,9 hPa 0,0 l/m 0 min 0 min 0 W/m 8,4 km/h (2 Bft) 100,00 %
30.04.2017 05:24 3,7 C 3,3 C 0,6 C 76 % 0 lf 1013,8 hPa 0,0 l/m 0 min 0 min 0 W/m 8,4 km/h (2 Bft) 100,00 %
30.04.2017 05:26 3,7 C 3,9 C 0,6 C 76 % 0 lf 1013,8 hPa 0,0 l/m 0 min 0 min 0 W/m 6,3 km/h (2 Bft) 95,74 %
30.04.2017 05:28 3,7 C 3,9 C 1,1 C 77 % 0 lf 1013,7 hPa 0,0 l/m 0 min 0 min 0 W/m 6,3 km/h (2 Bft) 95,74 %
30.04.2017 05:30 3,6 C 3,9 C 1,1 C 77 % 0 lf 1013,7 hPa 0,0 l/m 0 min 0 min 0 W/m 8,4 km/h (2 Bft) 97,87 %
30.04.2017 05:32 3,6 C 3,9 C 1,1 C 77 % 0 lf 1013,7 hPa 0,0 l/m 0 min 0 min 0 W/m 6,3 km/h (2 Bft) 95,74 %
30.04.2017 05:34 3,6 C 3,9 C 1,1 C 77 % 0 lf 1013,7 hPa 0,0 l/m 0 min 0 min 0 W/m 6,3 km/h (2 Bft) 95,74 %
30.04.2017 05:36 3,6 C 3,9 C 1,1 C 77 % 0 lf 1013,7 hPa 0,0 l/m 0 min 0 min 0 W/m 6,3 km/h (2 Bft) 95,65 %
30.04.2017 05:38 3,6 C 3,9 C 1,1 C 77 % 0 lf 1013,7 hPa 0,0 l/m 0 min 0 min 0 W/m 6,3 km/h (2 Bft) 95,74 %
30.04.2017 05:40 3,6 C 3,3 C 0,6 C 77 % 0 lf 1013,7 hPa 0,0 l/m 0 min 0 min 0 W/m 6,3 km/h (2 Bft) 95,74 %
30.04.2017 05:42 3,6 C 3,3 C 0,6 C 77 % 0 lf 1013,7 hPa 0,0 l/m 0 min 0 min 0 W/m 6,3 km/h (2 Bft) 93,62 %
30.04.2017 05:44 3,6 C 3,3 C 0,6 C 77 % 0 lf 1013,6 hPa 0,0 l/m 0 min 0 min 0 W/m 6,3 km/h (2 Bft) 91,49 %
30.04.2017 05:46 3,6 C 3,3 C 0,6 C 77 % 0 lf 1013,6 hPa 0,0 l/m 0 min 0 min 0 W/m 6,3 km/h (2 Bft) 89,36 %
30.04.2017 05:48 3,5 C 3,3 C 0,6 C 77 % 0 lf 1013,6 hPa 0,0 l/m 0 min 0 min 0 W/m 8,4 km/h (2 Bft) 89,13 %
30.04.2017 05:50 3,5 C 3,3 C 0,6 C 77 % 0 lf 1013,6 hPa 0,0 l/m 0 min 0 min 3 W/m 6,3 km/h (2 Bft) 93,62 %
30.04.2017 05:52 3,5 C 3,3 C 0,6 C 77 % 0 lf 1013,6 hPa 0,0 l/m 0 min 0 min 5 W/m 6,3 km/h (2 Bft) 91,49 %
30.04.2017 05:54 3,5 C 3,3 C 0,6 C 77 % 0 lf 1013,6 hPa 0,0 l/m 0 min 0 min 5 W/m 6,3 km/h (2 Bft) 89,36 %
30.04.2017 05:56 3,5 C 3,9 C 1,1 C 77 % 0 lf 1013,6 hPa 0,0 l/m 0 min 0 min 5 W/m 6,3 km/h (2 Bft) 82,98 %
30.04.2017 05:58 3,4 C 3,9 C 1,1 C 77 % 0 lf 1013,5 hPa 0,0 l/m 0 min 0 min 5 W/m 12,6 km/h (3 Bft) 89,36 %
30.04.2017 06:00 3,5 C 3,9 C 1,1 C 77 % 0 lf 1013,5 hPa 0,0 l/m 0 min 0 min 5 W/m 10,5 km/h (2 Bft) 91,30 %
30.04.2017 06:02 3,4 C 3,9 C 1,7 C 78 % 0 lf 1013,5 hPa 0,0 l/m 0 min 0 min 6 W/m 10,5 km/h (2 Bft) 91,49 %
30.04.2017 06:04 3,4 C 3,9 C 1,7 C 78 % 0 lf 1013,4 hPa 0,0 l/m 0 min 0 min 7 W/m 14,6 km/h (3 Bft) 89,36 %
30.04.2017 06:08 3,5 C 4,4 C 2,2 C 78 % 0 lf 1013,5 hPa 0,0 l/m 0 min 0 min 8 W/m 10,5 km/h (2 Bft) 90,43 %
30.04.2017 06:10 3,5 C 4,4 C 2,2 C 78 % 0 lf 1013,5 hPa 0,0 l/m 0 min 0 min 9 W/m 10,5 km/h (2 Bft) 88,89 %
30.04.2017 06:12 3,5 C 4,4 C 2,2 C 78 % 0 lf 1013,5 hPa 0,0 l/m 0 min 0 min 12 W/m 12,6 km/h (3 Bft) 91,67 %
30.04.2017 06:14 3,6 C 4,4 C 2,2 C 78 % 0 lf 1013,5 hPa 0,0 l/m 0 min 0 min 21 W/m 10,5 km/h (2 Bft) 93,62 %
30.04.2017 06:16 3,6 C 4,4 C 2,2 C 78 % 0 lf 1013,4 hPa 0,0 l/m 0 min 0 min 4 W/m 14,6 km/h (3 Bft) 91,49 %
30.04.2017 06:18 3,6 C 4,4 C 2,2 C 77 % 0 lf 1013,4 hPa 0,0 l/m 0 min 0 min 10 W/m 14,6 km/h (3 Bft) 93,62 %
30.04.2017 06:20 3,7 C 4,4 C 2,2 C 77 % 0 lf 1013,5 hPa 0,0 l/m 0 min 0 min 15 W/m 10,5 km/h (2 Bft) 94,83 %
30.04.2017 06:22 3,7 C 4,4 C 2,2 C 77 % 0 lf 1013,5 hPa 0,0 l/m 2 min 0 min 24 W/m 14,6 km/h (3 Bft) 94,29 %
30.04.2017 06:24 3,7 C 4,4 C 2,2 C 77 % 0 lf 1013,5 hPa 0,0 l/m 2 min 0 min 26 W/m 14,6 km/h (3 Bft) 93,62 %
30.04.2017 06:26 3,7 C 4,4 C 2,2 C 77 % 0 lf 1013,4 hPa 0,0 l/m 2 min 0 min 27 W/m 12,6 km/h (3 Bft) 89,58 %
30.04.2017 06:28 3,8 C 4,4 C 2,2 C 77 % 0 lf 1013,4 hPa 0,0 l/m 2 min 0 min 28 W/m 10,5 km/h (2 Bft) 91,49 %
30.04.2017 06:30 3,8 C 4,4 C 2,8 C 76 % 0 lf 1013,4 hPa 0,0 l/m 2 min 0 min 29 W/m 10,5 km/h (2 Bft) 95,74 %
30.04.2017 06:32 3,9 C 4,4 C 2,8 C 76 % 0 lf 1013,4 hPa 0,0 l/m 2 min 0 min 30 W/m 10,5 km/h (2 Bft) 95,74 %
30.04.2017 06:34 3,9 C 5,0 C 2,8 C 76 % 0 lf 1013,4 hPa 0,0 l/m 2 min 0 min 31 W/m 14,6 km/h (3 Bft) 97,83 %
30.04.2017 06:36 3,9 C 5,0 C 2,8 C 76 % 0 lf 1013,4 hPa 0,0 l/m 2 min 0 min 32 W/m 14,6 km/h (3 Bft) 93,62 %
30.04.2017 06:38 4,0 C 5,0 C 2,8 C 76 % 0 lf 1013,4 hPa 0,0 l/m 2 min 0 min 34 W/m 12,6 km/h (3 Bft) 98,18 %
30.04.2017 06:40 4,1 C 5,0 C 2,8 C 76 % 0 lf 1013,4 hPa 0,0 l/m 2 min 0 min 40 W/m 14,6 km/h (3 Bft) 97,87 %
30.04.2017 06:42 4,1 C 5,0 C 2,8 C 75 % 0 lf 1013,4 hPa 0,0 l/m 2 min 0 min 44 W/m 16,7 km/h (3 Bft) 100,00 %
30.04.2017 06:44 4,2 C 5,0 C 2,8 C 75 % 0 lf 1013,3 hPa 0,0 l/m 2 min 0 min 49 W/m 16,7 km/h (3 Bft) 93,48 %
30.04.2017 06:46 4,2 C 5,0 C 3,3 C 75 % 0 lf 1013,3 hPa 0,0 l/m 2 min 0 min 51 W/m 14,6 km/h (3 Bft) 100,00 %
30.04.2017 06:48 4,2 C 5,0 C 3,3 C 75 % 0 lf 1013,3 hPa 0,0 l/m 2 min 0 min 56 W/m 16,7 km/h (3 Bft) 100,00 %
30.04.2017 06:50 4,3 C 5,0 C 2,8 C 74 % 0 lf 1013,3 hPa 0,0 l/m 2 min 0 min 58 W/m 14,6 km/h (3 Bft) 100,00 %
30.04.2017 06:52 4,3 C 5,0 C 2,8 C 74 % 0 lf 1013,4 hPa 0,0 l/m 2 min 0 min 62 W/m 16,7 km/h (3 Bft) 91,49 %
30.04.2017 06:54 4,3 C 5,0 C 2,8 C 74 % 0 lf 1013,4 hPa 0,0 l/m 2 min 0 min 66 W/m 14,6 km/h (3 Bft) 100,00 %
30.04.2017 06:56 4,4 C 5,0 C 3,3 C 74 % 0 lf 1013,4 hPa 0,0 l/m 2 min 0 min 70 W/m 14,6 km/h (3 Bft) 100,00 %
30.04.2017 06:58 4,4 C 5,0 C 3,3 C 74 % 0 lf 1013,4 hPa 0,0 l/m 2 min 0 min 74 W/m 10,5 km/h (2 Bft) 100,00 %
30.04.2017 07:00 4,4 C 5,0 C 2,8 C 74 % 0 lf 1013,4 hPa 0,0 l/m 2 min 0 min 79 W/m 16,7 km/h (3 Bft) 100,00 %
30.04.2017 07:02 4,5 C 5,0 C 3,3 C 74 % 0 lf 1013,4 hPa 0,0 l/m 2 min 0 min 85 W/m 12,6 km/h (3 Bft) 96,00 %
30.04.2017 07:04 4,5 C 5,0 C 3,3 C 74 % 0 lf 1013,4 hPa 0,0 l/m 2 min 0 min 89 W/m 18,8 km/h (3 Bft) 100,00 %
30.04.2017 07:06 4,5 C 5,0 C 3,3 C 74 % 0 lf 1013,4 hPa 0,0 l/m 2 min 0 min 94 W/m 14,6 km/h (3 Bft) 97,87 %
30.04.2017 07:08 4,6 C 5,0 C 3,3 C 73 % 0 lf 1013,4 hPa 0,0 l/m 2 min 0 min 100 W/m 14,6 km/h (3 Bft) 100,00 %
30.04.2017 07:10 4,6 C 5,0 C 3,3 C 74 % 0 lf 1013,4 hPa 0,0 l/m 2 min 0 min 104 W/m 16,7 km/h (3 Bft) 100,00 %
30.04.2017 07:12 4,6 C 5,0 C 3,3 C 74 % 0 lf 1013,4 hPa 0,0 l/m 2 min 0 min 110 W/m 14,6 km/h (3 Bft) 100,00 %
30.04.2017 07:14 4,6 C 5,0 C 3,3 C 74 % 0 lf 1013,4 hPa 0,0 l/m 2 min 0 min 116 W/m 14,6 km/h (3 Bft) 100,00 %
30.04.2017 07:16 4,6 C 5,0 C 3,3 C 74 % 0 lf 1013,3 hPa 0,0 l/m 2 min 0 min 122 W/m 14,6 km/h (3 Bft) 97,87 %
30.04.2017 07:18 4,6 C 5,0 C 3,3 C 74 % 0 lf 1013,3 hPa 0,0 l/m 2 min 0 min 127 W/m 10,5 km/h (2 Bft) 100,00 %
30.04.2017 07:20 4,7 C 5,0 C 3,3 C 74 % 0 lf 1013,3 hPa 0,0 l/m 2 min 0 min 133 W/m 10,5 km/h (2 Bft) 100,00 %
30.04.2017 07:22 4,7 C 5,6 C 3,3 C 74 % 0 lf 1013,3 hPa 0,0 l/m 2 min 0 min 140 W/m 10,5 km/h (2 Bft) 100,00 %
30.04.2017 07:24 4,7 C 5,6 C 3,3 C 74 % 0 lf 1013,3 hPa 0,0 l/m 2 min 0 min 146 W/m 12,6 km/h (3 Bft) 100,00 %
30.04.2017 07:26 4,7 C 5,6 C 3,3 C 74 % 0 lf 1013,3 hPa 0,0 l/m 2 min 0 min 152 W/m 10,5 km/h (2 Bft) 100,00 %
30.04.2017 07:28 4,7 C 5,6 C 3,3 C 74 % 0 lf 1013,3 hPa 0,0 l/m 2 min 0 min 158 W/m 14,6 km/h (3 Bft) 100,00 %
30.04.2017 07:30 4,7 C 5,6 C 3,3 C 74 % 0 lf 1013,2 hPa 0,0 l/m 2 min 0 min 165 W/m 16,7 km/h (3 Bft) 97,92 %
30.04.2017 07:32 4,8 C 6,1 C 3,9 C 74 % 0 lf 1013,2 hPa 0,0 l/m 2 min 0 min 171 W/m 18,8 km/h (3 Bft) 100,00 %
30.04.2017 07:34 4,8 C 6,1 C 3,9 C 73 % 0 lf 1013,2 hPa 0,0 l/m 2 min 0 min 178 W/m 18,8 km/h (3 Bft) 100,00 %
30.04.2017 07:36 4,9 C 6,1 C 3,9 C 73 % 0 lf 1013,2 hPa 0,0 l/m 2 min 0 min 185 W/m 12,6 km/h (3 Bft) 97,87 %
30.04.2017 07:38 4,9 C 6,1 C 3,9 C 73 % 0 lf 1013,3 hPa 0,0 l/m 2 min 0 min 191 W/m 14,6 km/h (3 Bft) 95,74 %
30.04.2017 07:40 4,9 C 6,1 C 3,9 C 73 % 0 lf 1013,3 hPa 0,0 l/m 2 min 0 min 197 W/m 16,7 km/h (3 Bft) 93,62 %
30.04.2017 07:42 5,0 C 6,1 C 3,9 C 73 % 0 lf 1013,3 hPa 0,0 l/m 2 min 0 min 202 W/m 12,6 km/h (3 Bft) 97,87 %
30.04.2017 07:44 5,1 C 6,7 C 3,9 C 73 % 0 lf 1013,3 hPa 0,0 l/m 2 min 0 min 209 W/m 14,6 km/h (3 Bft) 95,65 %
30.04.2017 07:46 5,1 C 6,7 C 4,4 C 73 % 0 lf 1013,3 hPa 0,0 l/m 2 min 0 min 216 W/m 16,7 km/h (3 Bft) 97,87 %
30.04.2017 07:48 5,2 C 6,7 C 4,4 C 73 % 0 lf 1013,3 hPa 0,0 l/m 2 min 0 min 222 W/m 14,6 km/h (3 Bft) 97,87 %
30.04.2017 07:50 5,2 C 6,7 C 4,4 C 73 % 0 lf 1013,3 hPa 0,0 l/m 2 min 0 min 229 W/m 10,5 km/h (2 Bft) 97,87 %
30.04.2017 07:52 5,3 C 6,7 C 4,4 C 73 % 0 lf 1013,3 hPa 0,0 l/m 2 min 0 min 236 W/m 16,7 km/h (3 Bft) 93,62 %
30.04.2017 07:54 5,3 C 6,7 C 4,4 C 73 % 0 lf 1013,2 hPa 0,0 l/m 2 min 0 min 242 W/m 10,5 km/h (2 Bft) 97,87 %
30.04.2017 07:56 5,4 C 6,7 C 4,4 C 73 % 0 lf 1013,2 hPa 0,0 l/m 2 min 0 min 248 W/m 20,9 km/h (4 Bft) 97,83 %
30.04.2017 07:58 5,5 C 6,7 C 4,4 C 73 % 0 lf 1013,2 hPa 0,0 l/m 2 min 0 min 254 W/m 16,7 km/h (3 Bft) 100,00 %
30.04.2017 08:00 5,5 C 6,7 C 5,0 C 73 % 0 lf 1013,2 hPa 0,0 l/m 2 min 0 min 259 W/m 23,0 km/h (4 Bft) 97,87 %
30.04.2017 08:02 5,6 C 7,2 C 5,0 C 73 % 0 lf 1013,2 hPa 0,0 l/m 2 min 0 min 266 W/m 16,7 km/h (3 Bft) 95,74 %
30.04.2017 08:04 5,7 C 7,2 C 5,0 C 72 % 0 lf 1013,2 hPa 0,0 l/m 2 min 0 min 271 W/m 16,7 km/h (3 Bft) 97,87 %
30.04.2017 08:06 5,8 C 7,2 C 5,0 C 72 % 0 lf 1013,1 hPa 0,0 l/m 2 min 0 min 278 W/m 20,9 km/h (4 Bft) 95,65 %
30.04.2017 08:08 5,8 C 7,2 C 5,0 C 72 % 0 lf 1013,1 hPa 0,0 l/m 2 min 0 min 284 W/m 18,8 km/h (3 Bft) 97,87 %
30.04.2017 08:10 5,9 C 7,2 C 5,0 C 72 % 0 lf 1013,1 hPa 0,0 l/m 2 min 0 min 291 W/m 20,9 km/h (4 Bft) 95,74 %
30.04.2017 08:12 6,0 C 7,8 C 5,6 C 72 % 0 lf 1013,0 hPa 0,0 l/m 2 min 0 min 298 W/m 25,1 km/h (4 Bft) 95,74 %
30.04.2017 08:14 6,1 C 7,8 C 5,6 C 72 % 0 lf 1013,0 hPa 0,0 l/m 2 min 0 min 303 W/m 23,0 km/h (4 Bft) 95,74 %
30.04.2017 08:16 6,2 C 7,8 C 5,6 C 72 % 0 lf 1013,0 hPa 0,0 l/m 2 min 0 min 310 W/m 20,9 km/h (4 Bft) 100,00 %
30.04.2017 08:18 6,3 C 7,8 C 5,6 C 71 % 0 lf 1013,0 hPa 0,0 l/m 2 min 0 min 314 W/m 27,2 km/h (4 Bft) 100,00 %
30.04.2017 08:20 6,4 C 7,8 C 5,6 C 71 % 0 lf 1013,0 hPa 0,0 l/m 2 min 0 min 323 W/m 20,9 km/h (4 Bft) 95,74 %
30.04.2017 08:22 6,5 C 8,3 C 5,6 C 71 % 0 lf 1013,0 hPa 0,0 l/m 2 min 0 min 329 W/m 14,6 km/h (3 Bft) 95,74 %
30.04.2017 08:24 6,6 C 8,3 C 6,1 C 71 % 0 lf 1013,0 hPa 0,0 l/m 2 min 0 min 334 W/m 16,7 km/h (3 Bft) 97,87 %
30.04.2017 08:26 6,7 C 8,3 C 6,1 C 70 % 0 lf 1013,0 hPa 0,0 l/m 2 min 0 min 342 W/m 14,6 km/h (3 Bft) 95,74 %
30.04.2017 08:28 6,8 C 8,3 C 6,1 C 70 % 0 lf 1012,9 hPa 0,0 l/m 2 min 0 min 348 W/m 20,9 km/h (4 Bft) 95,74 %
30.04.2017 08:30 6,9 C 8,9 C 6,1 C 70 % 0 lf 1012,9 hPa 0,0 l/m 2 min 0 min 352 W/m 29,3 km/h (5 Bft) 95,65 %
30.04.2017 08:32 7,1 C 8,9 C 6,7 C 70 % 0 lf 1012,9 hPa 0,0 l/m 2 min 0 min 360 W/m 25,1 km/h (4 Bft) 97,87 %
30.04.2017 08:34 7,2 C 8,9 C 6,7 C 69 % 0 lf 1012,8 hPa 0,0 l/m 2 min 0 min 369 W/m 25,1 km/h (4 Bft) 97,87 %
30.04.2017 08:36 7,3 C 10,6 C 6,7 C 69 % 0 lf 1012,8 hPa 0,0 l/m 2 min 0 min 376 W/m 23,0 km/h (4 Bft) 93,62 %
30.04.2017 08:38 7,4 C 12,2 C 6,7 C 69 % 0 lf 1012,8 hPa 0,0 l/m 2 min 0 min 382 W/m 25,1 km/h (4 Bft) 97,87 %
30.04.2017 08:40 7,6 C 13,9 C 6,7 C 68 % 0 lf 1012,8 hPa 0,0 l/m 2 min 0 min 388 W/m 27,2 km/h (4 Bft) 95,74 %
30.04.2017 08:42 7,7 C 13,9 C 7,2 C 68 % 0 lf 1012,8 hPa 0,0 l/m 2 min 0 min 392 W/m 27,2 km/h (4 Bft) 93,48 %
30.04.2017 08:44 7,9 C 14,4 C 7,2 C 67 % 0 lf 1012,7 hPa 0,0 l/m 2 min 0 min 390 W/m 18,8 km/h (3 Bft) 95,74 %
30.04.2017 08:46 8,1 C 13,3 C 7,2 C 67 % 0 lf 1012,7 hPa 0,0 l/m 2 min 0 min 399 W/m 39,7 km/h (6 Bft) 93,62 %
30.04.2017 08:48 8,3 C 13,9 C 7,2 C 66 % 0 lf 1012,7 hPa 0,0 l/m 2 min 0 min 414 W/m 23,0 km/h (4 Bft) 95,74 %
30.04.2017 08:50 8,4 C 13,9 C 7,8 C 66 % 0 lf 1012,8 hPa 0,0 l/m 2 min 0 min 420 W/m 29,3 km/h (5 Bft) 97,87 %
30.04.2017 08:52 8,6 C 13,3 C 7,8 C 65 % 0 lf 1012,7 hPa 0,0 l/m 2 min 0 min 408 W/m 29,3 km/h (5 Bft) 95,74 %
30.04.2017 08:54 8,7 C 13,3 C 7,8 C 65 % 0 lf 1012,7 hPa 0,0 l/m 2 min 0 min 421 W/m 29,3 km/h (5 Bft) 93,48 %
30.04.2017 08:56 8,9 C 13,9 C 7,8 C 64 % 0 lf 1012,6 hPa 0,0 l/m 2 min 0 min 437 W/m 31,4 km/h (5 Bft) 95,74 %
30.04.2017 08:58 9,1 C 14,4 C 7,8 C 65 % 0 lf 1012,6 hPa 0,0 l/m 2 min 0 min 443 W/m 14,6 km/h (3 Bft) 95,74 %
30.04.2017 09:00 9,2 C 15,0 C 8,3 C 64 % 0 lf 1012,6 hPa 0,0 l/m 2 min 0 min 437 W/m 29,3 km/h (5 Bft) 91,49 %
30.04.2017 09:02 9,3 C 15,6 C 8,3 C 64 % 0 lf 1012,6 hPa 0,0 l/m 2 min 0 min 409 W/m 29,3 km/h (5 Bft) 95,74 %
30.04.2017 09:04 9,4 C 15,6 C 8,3 C 63 % 0 lf 1012,5 hPa 0,0 l/m 2 min 0 min 380 W/m 31,4 km/h (5 Bft) 95,74 %
30.04.2017 09:06 9,6 C 15,0 C 8,9 C 63 % 0 lf 1012,6 hPa 0,0 l/m 2 min 0 min 414 W/m 29,3 km/h (5 Bft) 95,65 %
30.04.2017 09:08 9,7 C 15,0 C 8,9 C 63 % 0 lf 1012,6 hPa 0,0 l/m 2 min 0 min 422 W/m 27,2 km/h (4 Bft) 95,74 %
30.04.2017 09:10 9,8 C 15,6 C 8,9 C 63 % 0 lf 1012,6 hPa 0,0 l/m 2 min 0 min 450 W/m 35,6 km/h (5 Bft) 95,74 %
30.04.2017 09:12 9,9 C 15,6 C 8,9 C 62 % 0 lf 1012,5 hPa 0,0 l/m 2 min 0 min 450 W/m 23,0 km/h (4 Bft) 93,62 %
30.04.2017 09:14 10,0 C 15,6 C 8,9 C 62 % 0 lf 1012,5 hPa 0,0 l/m 2 min 0 min 448 W/m 35,6 km/h (5 Bft) 95,74 %
30.04.2017 09:16 10,1 C 16,1 C 8,9 C 62 % 0 lf 1012,5 hPa 0,0 l/m 2 min 0 min 476 W/m 27,2 km/h (4 Bft) 95,65 %
30.04.2017 09:18 10,2 C 15,0 C 9,4 C 61 % 0 lf 1012,3 hPa 0,0 l/m 2 min 0 min 508 W/m 31,4 km/h (5 Bft) 95,74 %
30.04.2017 09:20 10,3 C 16,1 C 9,4 C 61 % 0 lf 1012,4 hPa 0,0 l/m 2 min 0 min 518 W/m 25,1 km/h (4 Bft) 97,87 %
30.04.2017 09:22 10,4 C 15,6 C 10,0 C 61 % 0 lf 1012,5 hPa 0,0 l/m 2 min 0 min 517 W/m 33,5 km/h (5 Bft) 97,87 %
30.04.2017 09:24 10,6 C 15,0 C 10,0 C 61 % 0 lf 1012,4 hPa 0,0 l/m 2 min 0 min 469 W/m 25,1 km/h (4 Bft) 97,87 %
30.04.2017 09:26 10,6 C 15,6 C 10,0 C 61 % 0 lf 1012,4 hPa 0,0 l/m 2 min 0 min 507 W/m 25,1 km/h (4 Bft) 95,74 %
30.04.2017 09:28 10,7 C 16,1 C 10,6 C 61 % 0 lf 1012,3 hPa 0,0 l/m 2 min 0 min 514 W/m 23,0 km/h (4 Bft) 95,65 %
30.04.2017 09:30 10,8 C 17,8 C 10,6 C 61 % 0 lf 1012,3 hPa 0,0 l/m 2 min 0 min 522 W/m 33,5 km/h (5 Bft) 95,74 %
30.04.2017 09:32 10,9 C 16,7 C 10,6 C 61 % 0 lf 1012,3 hPa 0,0 l/m 2 min 0 min 526 W/m 27,2 km/h (4 Bft) 95,74 %
30.04.2017 09:34 11,0 C 17,2 C 10,6 C 60 % 0 lf 1012,3 hPa 0,0 l/m 2 min 0 min 530 W/m 27,2 km/h (4 Bft) 91,49 %
30.04.2017 09:36 11,1 C 16,1 C 11,1 C 60 % 0 lf 1012,2 hPa 0,0 l/m 2 min 0 min 542 W/m 31,4 km/h (5 Bft) 97,87 %
30.04.2017 09:38 11,2 C 15,6 C 12,8 C 60 % 0 lf 1012,2 hPa 0,0 l/m 2 min 0 min 531 W/m 31,4 km/h (5 Bft) 93,62 %
30.04.2017 09:40 11,2 C 16,1 C 13,3 C 60 % 0 lf 1012,2 hPa 0,0 l/m 2 min 0 min 515 W/m 25,1 km/h (4 Bft) 93,62 %
30.04.2017 09:42 11,3 C 15,6 C 12,8 C 60 % 0 lf 1012,1 hPa 0,0 l/m 2 min 0 min 471 W/m 25,1 km/h (4 Bft) 95,65 %
30.04.2017 09:44 11,3 C 16,1 C 12,8 C 60 % 0 lf 1012,1 hPa 0,0 l/m 2 min 0 min 497 W/m 29,3 km/h (5 Bft) 95,74 %
30.04.2017 09:46 11,4 C 16,1 C 13,3 C 60 % 0 lf 1012,1 hPa 0,0 l/m 2 min 0 min 479 W/m 27,2 km/h (4 Bft) 97,87 %
30.04.2017 09:48 11,5 C 15,6 C 13,9 C 59 % 0 lf 1012,1 hPa 0,0 l/m 2 min 0 min 539 W/m 27,2 km/h (4 Bft) 95,74 %
30.04.2017 09:50 11,6 C 17,2 C 14,4 C 60 % 0 lf 1012,0 hPa 0,0 l/m 2 min 0 min 596 W/m 27,2 km/h (4 Bft) 95,74 %
30.04.2017 09:52 11,7 C 17,2 C 15,6 C 59 % 0 lf 1012,1 hPa 0,0 l/m 2 min 0 min 604 W/m 31,4 km/h (5 Bft) 95,65 %
30.04.2017 09:54 11,7 C 16,7 C 16,1 C 59 % 0 lf 1012,0 hPa 0,0 l/m 2 min 0 min 614 W/m 29,3 km/h (5 Bft) 97,87 %
30.04.2017 09:56 11,8 C 17,8 C 16,7 C 59 % 0 lf 1012,0 hPa 0,0 l/m 2 min 0 min 609 W/m 27,2 km/h (4 Bft) 95,74 %
30.04.2017 09:58 11,9 C 17,8 C 16,7 C 59 % 0 lf 1011,9 hPa 0,0 l/m 2 min 0 min 573 W/m 31,4 km/h (5 Bft) 95,74 %
30.04.2017 10:00 12,0 C 17,8 C 16,7 C 59 % 0 lf 1012,0 hPa 0,0 l/m 2 min 0 min 539 W/m 27,2 km/h (4 Bft) 93,62 %
30.04.2017 10:02 12,1 C 17,2 C 16,1 C 58 % 0 lf 1012,0 hPa 0,0 l/m 2 min 0 min 557 W/m 35,6 km/h (5 Bft) 95,74 %
30.04.2017 10:04 12,2 C 17,8 C 16,7 C 58 % 0 lf 1011,9 hPa 0,0 l/m 2 min 0 min 579 W/m 23,0 km/h (4 Bft) 95,83 %
30.04.2017 10:06 12,2 C 17,8 C 16,7 C 58 % 0 lf 1011,9 hPa 0,0 l/m 2 min 0 min 599 W/m 35,6 km/h (5 Bft) 93,62 %
30.04.2017 10:08 12,3 C 17,2 C 16,7 C 57 % 0 lf 1011,9 hPa 0,0 l/m 2 min 0 min 558 W/m 29,3 km/h (5 Bft) 93,62 %
30.04.2017 10:10 12,4 C 17,2 C 16,7 C 57 % 0 lf 1011,9 hPa 0,0 l/m 2 min 0 min 542 W/m 27,2 km/h (4 Bft) 95,74 %
30.04.2017 10:12 12,4 C 17,2 C 16,7 C 57 % 0 lf 1011,9 hPa 0,0 l/m 2 min 0 min 531 W/m 25,1 km/h (4 Bft) 95,74 %
30.04.2017 10:14 12,5 C 17,2 C 16,1 C 57 % 0 lf 1011,9 hPa 0,0 l/m 2 min 0 min 503 W/m 23,0 km/h (4 Bft) 93,48 %
30.04.2017 10:16 12,6 C 17,2 C 16,1 C 57 % 0 lf 1011,8 hPa 0,0 l/m 2 min 0 min 523 W/m 35,6 km/h (5 Bft) 95,74 %
30.04.2017 10:18 12,6 C 16,7 C 16,1 C 57 % 0 lf 1011,7 hPa 0,0 l/m 2 min 0 min 496 W/m 25,1 km/h (4 Bft) 95,74 %
30.04.2017 10:20 12,7 C 16,7 C 16,1 C 57 % 0 lf 1011,6 hPa 0,0 l/m 2 min 0 min 442 W/m 27,2 km/h (4 Bft) 93,62 %
30.04.2017 10:22 12,7 C 16,7 C 16,1 C 57 % 0 lf 1011,6 hPa 0,0 l/m 2 min 0 min 441 W/m 18,8 km/h (3 Bft) 93,62 %
30.04.2017 10:24 12,8 C 17,2 C 16,1 C 57 % 0 lf 1011,6 hPa 0,0 l/m 2 min 0 min 441 W/m 25,1 km/h (4 Bft) 95,74 %
30.04.2017 10:26 12,8 C 16,7 C 15,6 C 57 % 0 lf 1011,7 hPa 0,0 l/m 2 min 0 min 437 W/m 27,2 km/h (4 Bft) 97,83 %
30.04.2017 10:28 12,8 C 17,2 C 16,1 C 57 % 0 lf 1011,6 hPa 0,0 l/m 2 min 0 min 464 W/m 16,7 km/h (3 Bft) 97,87 %
30.04.2017 10:30 12,9 C 18,3 C 16,7 C 58 % 0 lf 1011,6 hPa 0,0 l/m 2 min 0 min 510 W/m 20,9 km/h (4 Bft) 97,87 %
30.04.2017 10:32 12,9 C 17,8 C 17,2 C 57 % 0 lf 1011,6 hPa 0,0 l/m 2 min 0 min 576 W/m 20,9 km/h (4 Bft) 100,00 %
30.04.2017 10:34 13,0 C 18,3 C 17,8 C 57 % 0 lf 1011,5 hPa 0,0 l/m 2 min 0 min 545 W/m 14,6 km/h (3 Bft) 100,00 %
30.04.2017 10:36 13,1 C 18,3 C 17,8 C 58 % 0 lf 1011,5 hPa 0,0 l/m 2 min 0 min 549 W/m 12,6 km/h (3 Bft) 97,87 %
30.04.2017 10:38 13,2 C 17,8 C 17,8 C 57 % 0 lf 1011,6 hPa 0,0 l/m 2 min 0 min 561 W/m 16,7 km/h (3 Bft) 100,00 %
30.04.2017 10:40 13,3 C 18,9 C 18,3 C 58 % 0 lf 1011,5 hPa 0,0 l/m 2 min 0 min 591 W/m 23,0 km/h (4 Bft) 100,00 %
30.04.2017 10:42 13,4 C 20,0 C 19,4 C 57 % 0 lf 1011,4 hPa 0,0 l/m 2 min 0 min 699 W/m 23,0 km/h (4 Bft) 93,62 %
30.04.2017 10:44 13,6 C 18,9 C 20,0 C 56 % 0 lf 1011,4 hPa 0,0 l/m 2 min 0 min 726 W/m 23,0 km/h (4 Bft) 100,00 %
30.04.2017 10:46 13,7 C 19,4 C 20,6 C 56 % 0 lf 1011,3 hPa 0,0 l/m 2 min 0 min 740 W/m 31,4 km/h (5 Bft) 97,87 %
30.04.2017 10:48 13,9 C 18,9 C 20,0 C 55 % 0 lf 1011,3 hPa 0,0 l/m 2 min 0 min 753 W/m 27,2 km/h (4 Bft) 100,00 %
30.04.2017 10:50 14,0 C 19,4 C 20,0 C 55 % 0 lf 1011,2 hPa 0,0 l/m 2 min 0 min 754 W/m 25,1 km/h (4 Bft) 100,00 %
30.04.2017 10:52 14,2 C 21,1 C 20,0 C 56 % 0 lf 1011,1 hPa 0,0 l/m 2 min 0 min 736 W/m 27,2 km/h (4 Bft) 100,00 %
30.04.2017 10:54 14,2 C 19,4 C 20,0 C 55 % 0 lf 1011,2 hPa 0,0 l/m 2 min 0 min 721 W/m 29,3 km/h (5 Bft) 100,00 %
30.04.2017 10:56 14,3 C 20,0 C 20,0 C 54 % 0 lf 1011,1 hPa 0,0 l/m 2 min 0 min 705 W/m 20,9 km/h (4 Bft) 100,00 %
30.04.2017 10:58 14,4 C 21,1 C 20,0 C 55 % 0 lf 1011,2 hPa 0,0 l/m 2 min 0 min 681 W/m 25,1 km/h (4 Bft) 97,87 %
30.04.2017 11:00 14,6 C 20,6 C 20,0 C 54 % 0 lf 1011,1 hPa 0,0 l/m 2 min 0 min 678 W/m 29,3 km/h (5 Bft) 100,00 %
30.04.2017 11:02 14,7 C 19,4 C 18,9 C 53 % 0 lf 1011,0 hPa 0,0 l/m 2 min 0 min 676 W/m 27,2 km/h (4 Bft) 100,00 %
30.04.2017 11:04 14,8 C 20,0 C 17,8 C 54 % 0 lf 1011,0 hPa 0,0 l/m 2 min 0 min 738 W/m 25,1 km/h (4 Bft) 100,00 %
30.04.2017 11:06 14,9 C 21,1 C 17,2 C 54 % 0 lf 1011,0 hPa 0,0 l/m 2 min 0 min 752 W/m 20,9 km/h (4 Bft) 95,74 %
30.04.2017 11:08 15,0 C 21,1 C 17,2 C 54 % 0 lf 1010,9 hPa 0,0 l/m 2 min 0 min 756 W/m 35,6 km/h (5 Bft) 100,00 %
30.04.2017 11:10 15,1 C 21,1 C 17,2 C 52 % 0 lf 1010,9 hPa 0,0 l/m 2 min 0 min 758 W/m 29,3 km/h (5 Bft) 100,00 %
30.04.2017 11:12 15,2 C 20,0 C 17,2 C 51 % 0 lf 1010,9 hPa 0,0 l/m 2 min 0 min 762 W/m 37,7 km/h (5 Bft) 100,00 %
30.04.2017 11:14 15,2 C 21,1 C 18,9 C 52 % 0 lf 1010,8 hPa 0,0 l/m 2 min 0 min 764 W/m 27,2 km/h (4 Bft) 100,00 %
30.04.2017 11:16 15,3 C 20,6 C 20,0 C 51 % 0 lf 1010,8 hPa 0,0 l/m 2 min 0 min 728 W/m 35,6 km/h (5 Bft) 97,87 %
30.04.2017 11:18 15,3 C 22,2 C 21,1 C 51 % 0 lf 1010,8 hPa 0,0 l/m 2 min 0 min 772 W/m 31,4 km/h (5 Bft) 100,00 %
30.04.2017 11:20 15,4 C 19,4 C 20,6 C 50 % 0 lf 1010,7 hPa 0,0 l/m 2 min 0 min 770 W/m 41,8 km/h (6 Bft) 95,74 %
30.04.2017 11:22 15,4 C 18,9 C 20,6 C 50 % 0 lf 1010,7 hPa 0,0 l/m 2 min 0 min 775 W/m 46,0 km/h (6 Bft) 95,74 %
30.04.2017 11:24 15,4 C 18,9 C 20,6 C 50 % 0 lf 1010,7 hPa 0,0 l/m 2 min 0 min 779 W/m 31,4 km/h (5 Bft) 97,87 %
30.04.2017 11:26 15,4 C 19,4 C 21,1 C 50 % 0 lf 1010,7 hPa 0,0 l/m 2 min 0 min 781 W/m 29,3 km/h (5 Bft) 97,83 %
30.04.2017 11:28 15,5 C 20,0 C 21,7 C 50 % 0 lf 1010,6 hPa 0,0 l/m 2 min 0 min 785 W/m 27,2 km/h (4 Bft) 97,87 %
30.04.2017 11:30 15,6 C 20,0 C 21,1 C 50 % 0 lf 1010,7 hPa 0,0 l/m 2 min 0 min 786 W/m 35,6 km/h (5 Bft) 91,49 %
30.04.2017 11:32 15,6 C 20,6 C 20,6 C 50 % 0 lf 1010,6 hPa 0,0 l/m 2 min 0 min 779 W/m 31,4 km/h (5 Bft) 93,62 %
30.04.2017 11:34 15,7 C 21,1 C 20,6 C 49 % 0 lf 1010,6 hPa 0,0 l/m 2 min 0 min 790 W/m 43,9 km/h (6 Bft) 93,62 %
30.04.2017 11:36 15,7 C 21,1 C 20,6 C 49 % 0 lf 1010,5 hPa 0,0 l/m 2 min 0 min 777 W/m 37,7 km/h (5 Bft) 95,65 %
30.04.2017 11:38 15,8 C 20,6 C 21,1 C 50 % 0 lf 1010,5 hPa 0,0 l/m 2 min 0 min 786 W/m 33,5 km/h (5 Bft) 95,74 %
30.04.2017 11:40 15,9 C 21,1 C 21,1 C 50 % 0 lf 1010,6 hPa 0,0 l/m 2 min 0 min 800 W/m 33,5 km/h (5 Bft) 97,87 %
30.04.2017 11:42 16,0 C 20,0 C 21,1 C 48 % 0 lf 1010,4 hPa 0,0 l/m 2 min 0 min 778 W/m 35,6 km/h (5 Bft) 93,62 %
30.04.2017 11:44 16,1 C 21,7 C 21,1 C 49 % 0 lf 1010,3 hPa 0,0 l/m 2 min 0 min 822 W/m 33,5 km/h (5 Bft) 95,74 %
30.04.2017 11:46 16,1 C 20,0 C 21,1 C 49 % 0 lf 1010,4 hPa 0,0 l/m 2 min 0 min 804 W/m 35,6 km/h (5 Bft) 95,74 %
30.04.2017 11:48 16,2 C 20,0 C 20,6 C 48 % 0 lf 1010,3 hPa 0,0 l/m 2 min 0 min 755 W/m 46,0 km/h (6 Bft) 95,65 %
30.04.2017 11:50 16,2 C 20,0 C 20,0 C 46 % 0 lf 1010,4 hPa 0,0 l/m 2 min 0 min 727 W/m 46,0 km/h (6 Bft) 93,62 %
30.04.2017 11:52 16,2 C 20,0 C 20,0 C 47 % 0 lf 1010,2 hPa 0,0 l/m 2 min 0 min 720 W/m 33,5 km/h (5 Bft) 93,62 %
30.04.2017 11:54 16,2 C 20,0 C 20,0 C 48 % 0 lf 1010,1 hPa 0,0 l/m 2 min 0 min 736 W/m 48,1 km/h (6 Bft) 95,74 %
30.04.2017 11:56 16,2 C 20,0 C 19,4 C 47 % 0 lf 1010,3 hPa 0,0 l/m 2 min 0 min 687 W/m 52,3 km/h (7 Bft) 93,62 %
30.04.2017 11:58 16,2 C 20,0 C 18,9 C 47 % 0 lf 1010,1 hPa 0,0 l/m 2 min 0 min 662 W/m 41,8 km/h (6 Bft) 93,62 %
30.04.2017 12:00 16,2 C 20,6 C 20,0 C 47 % 0 lf 1010,1 hPa 0,0 l/m 2 min 0 min 719 W/m 29,3 km/h (5 Bft) 95,65 %
30.04.2017 12:02 16,2 C 20,6 C 20,6 C 48 % 0 lf 1010,0 hPa 0,0 l/m 2 min 0 min 769 W/m 48,1 km/h (6 Bft) 93,62 %
30.04.2017 12:04 16,2 C 20,0 C 20,0 C 47 % 0 lf 1010,1 hPa 0,0 l/m 2 min 0 min 666 W/m 54,4 km/h (7 Bft) 95,74 %
30.04.2017 12:06 16,2 C 21,1 C 19,4 C 47 % 0 lf 1010,1 hPa 0,0 l/m 2 min 0 min 605 W/m 37,7 km/h (5 Bft) 93,62 %
30.04.2017 12:08 16,3 C 21,1 C 20,6 C 47 % 0 lf 1010,1 hPa 0,0 l/m 2 min 0 min 576 W/m 33,5 km/h (5 Bft) 93,75 %
30.04.2017 12:10 16,3 C 20,6 C 20,6 C 46 % 0 lf 1010,0 hPa 0,0 l/m 2 min 0 min 659 W/m 37,7 km/h (5 Bft) 89,36 %
30.04.2017 12:12 16,4 C 20,6 C 20,6 C 46 % 0 lf 1010,0 hPa 0,0 l/m 2 min 0 min 705 W/m 46,0 km/h (6 Bft) 93,48 %
30.04.2017 12:14 16,4 C 21,1 C 21,1 C 46 % 0 lf 1009,9 hPa 0,0 l/m 2 min 0 min 829 W/m 50,2 km/h (7 Bft) 95,74 %
30.04.2017 12:16 16,6 C 20,6 C 21,1 C 47 % 0 lf 1009,9 hPa 0,0 l/m 2 min 0 min 779 W/m 54,4 km/h (7 Bft) 91,49 %
30.04.2017 12:18 16,6 C 21,1 C 21,1 C 46 % 0 lf 1010,1 hPa 0,0 l/m 2 min 0 min 691 W/m 52,3 km/h (7 Bft) 97,87 %
30.04.2017 12:20 16,7 C 21,1 C 20,6 C 46 % 0 lf 1009,9 hPa 0,0 l/m 2 min 0 min 832 W/m 43,9 km/h (6 Bft) 97,87 %
30.04.2017 12:22 16,7 C 20,0 C 20,0 C 45 % 0 lf 1009,9 hPa 0,0 l/m 2 min 0 min 746 W/m 37,7 km/h (5 Bft) 97,87 %
30.04.2017 12:24 16,7 C 20,0 C 19,4 C 45 % 0 lf 1010,0 hPa 0,0 l/m 2 min 0 min 381 W/m 43,9 km/h (6 Bft) 93,48 %
30.04.2017 12:26 16,6 C 19,4 C 19,4 C 44 % 0 lf 1009,9 hPa 0,0 l/m 2 min 0 min 422 W/m 46,0 km/h (6 Bft) 89,36 %
30.04.2017 12:28 16,6 C 20,0 C 18,9 C 45 % 0 lf 1009,9 hPa 0,0 l/m 2 min 0 min 388 W/m 46,0 km/h (6 Bft) 95,74 %
30.04.2017 12:30 16,7 C 20,0 C 18,3 C 45 % 0 lf 1009,9 hPa 0,0 l/m 2 min 0 min 470 W/m 41,8 km/h (6 Bft) 97,87 %
30.04.2017 12:32 16,7 C 21,1 C 18,3 C 46 % 0 lf 1009,9 hPa 0,0 l/m 2 min 0 min 476 W/m 41,8 km/h (6 Bft) 95,74 %
30.04.2017 12:34 16,7 C 21,1 C 18,3 C 45 % 0 lf 1009,8 hPa 0,0 l/m 2 min 0 min 575 W/m 48,1 km/h (6 Bft) 95,65 %
30.04.2017 12:36 16,8 C 21,1 C 17,8 C 45 % 0 lf 1009,8 hPa 0,0 l/m 2 min 0 min 877 W/m 50,2 km/h (7 Bft) 97,87 %
30.04.2017 12:38 16,9 C 21,7 C 18,3 C 46 % 0 lf 1009,7 hPa 0,0 l/m 2 min 0 min 889 W/m 41,8 km/h (6 Bft) 97,87 %
30.04.2017 12:40 16,9 C 22,2 C 17,8 C 45 % 0 lf 1009,7 hPa 0,0 l/m 2 min 0 min 897 W/m 35,6 km/h (5 Bft) 93,62 %
30.04.2017 12:42 17,0 C 21,7 C 18,3 C 44 % 0 lf 1009,7 hPa 0,0 l/m 2 min 0 min 908 W/m 56,5 km/h (7 Bft) 95,74 %
30.04.2017 12:44 17,1 C 21,7 C 17,8 C 44 % 0 lf 1009,6 hPa 0,0 l/m 2 min 0 min 802 W/m 62,8 km/h (8 Bft) 93,62 %
30.04.2017 12:46 17,2 C 22,2 C 18,3 C 45 % 0 lf 1009,6 hPa 0,0 l/m 2 min 0 min 664 W/m 37,7 km/h (5 Bft) 95,65 %
30.04.2017 12:48 17,2 C 21,7 C 18,9 C 45 % 0 lf 1009,6 hPa 0,0 l/m 2 min 0 min 639 W/m 35,6 km/h (5 Bft) 94,87 %
30.04.2017 12:50 17,3 C 22,2 C 19,4 C 46 % 0 lf 1009,5 hPa 0,0 l/m 2 min 0 min 886 W/m 48,1 km/h (6 Bft) 97,83 %
30.04.2017 12:52 17,3 C 22,2 C 19,4 C 45 % 0 lf 1009,4 hPa 0,0 l/m 2 min 0 min 841 W/m 37,7 km/h (5 Bft) 97,87 %
30.04.2017 12:54 17,4 C 22,2 C 20,0 C 44 % 0 lf 1009,4 hPa 0,0 l/m 2 min 0 min 724 W/m 39,7 km/h (6 Bft) 97,87 %
30.04.2017 12:56 17,5 C 21,1 C 20,0 C 44 % 0 lf 1009,4 hPa 0,0 l/m 2 min 0 min 736 W/m 52,3 km/h (7 Bft) 97,87 %
30.04.2017 12:58 17,4 C 21,1 C 19,4 C 44 % 0 lf 1009,4 hPa 0,0 l/m 2 min 0 min 738 W/m 41,8 km/h (6 Bft) 91,49 %
30.04.2017 13:00 17,5 C 21,1 C 20,0 C 43 % 0 lf 1009,3 hPa 0,0 l/m 2 min 0 min 792 W/m 46,0 km/h (6 Bft) 95,65 %
30.04.2017 13:02 17,5 C 21,7 C 20,6 C 44 % 0 lf 1009,2 hPa 0,0 l/m 2 min 0 min 940 W/m 37,7 km/h (5 Bft) 97,87 %
30.04.2017 13:04 17,6 C 21,7 C 20,0 C 44 % 0 lf 1009,1 hPa 0,0 l/m 2 min 0 min 895 W/m 39,7 km/h (6 Bft) 97,87 %
30.04.2017 13:06 17,7 C 22,8 C 20,0 C 45 % 0 lf 1009,2 hPa 0,0 l/m 2 min 0 min 878 W/m 35,6 km/h (5 Bft) 95,74 %
30.04.2017 13:08 17,7 C 23,9 C 20,0 C 45 % 0 lf 1009,2 hPa 0,0 l/m 2 min 0 min 933 W/m 33,5 km/h (5 Bft) 95,74 %
30.04.2017 13:10 17,9 C 23,9 C 19,4 C 43 % 0 lf 1009,1 hPa 0,0 l/m 2 min 0 min 955 W/m 52,3 km/h (7 Bft) 95,74 %
30.04.2017 13:12 18,0 C 23,9 C 19,4 C 44 % 0 lf 1009,1 hPa 0,0 l/m 2 min 0 min 960 W/m 41,8 km/h (6 Bft) 97,83 %
30.04.2017 13:14 18,0 C 21,1 C 18,3 C 43 % 0 lf 1009,1 hPa 0,0 l/m 2 min 0 min 968 W/m 48,1 km/h (6 Bft) 97,87 %
30.04.2017 13:16 17,9 C 19,4 C 17,8 C 43 % 0 lf 1009,0 hPa 0,0 l/m 2 min 0 min 476 W/m 33,5 km/h (5 Bft) 97,87 %
30.04.2017 13:18 17,8 C 18,9 C 17,2 C 43 % 0 lf 1009,0 hPa 0,0 l/m 0 min 0 min 261 W/m 37,7 km/h (5 Bft) 95,74 %
30.04.2017 13:20 17,7 C 18,3 C 17,2 C 43 % 0 lf 1009,0 hPa 0,0 l/m 0 min 0 min 297 W/m 33,5 km/h (5 Bft) 95,74 %
30.04.2017 13:22 17,6 C 19,4 C 17,2 C 44 % 0 lf 1009,0 hPa 0,0 l/m 0 min 0 min 388 W/m 39,7 km/h (6 Bft) 97,87 %
30.04.2017 13:24 17,6 C 22,2 C 18,3 C 45 % 0 lf 1009,0 hPa 0,0 l/m 2 min 0 min 713 W/m 33,5 km/h (5 Bft) 95,65 %
30.04.2017 13:26 17,6 C 23,9 C 19,4 C 44 % 0 lf 1009,0 hPa 0,0 l/m 2 min 0 min 1056 W/m 39,7 km/h (6 Bft) 97,87 %
30.04.2017 13:28 17,8 C 23,9 C 19,4 C 45 % 0 lf 1008,9 hPa 0,0 l/m 2 min 0 min 1032 W/m 35,6 km/h (5 Bft) 95,74 %
30.04.2017 13:30 17,9 C 22,8 C 20,0 C 44 % 0 lf 1008,8 hPa 0,0 l/m 2 min 0 min 975 W/m 48,1 km/h (6 Bft) 97,87 %
30.04.2017 13:32 18,0 C 22,8 C 20,0 C 44 % 0 lf 1009,0 hPa 0,0 l/m 2 min 0 min 969 W/m 33,5 km/h (5 Bft) 93,62 %
30.04.2017 13:34 18,1 C 22,2 C 19,4 C 43 % 0 lf 1008,9 hPa 0,0 l/m 2 min 0 min 959 W/m 41,8 km/h (6 Bft) 100,00 %
30.04.2017 13:36 18,1 C 22,2 C 18,9 C 43 % 0 lf 1008,7 hPa 0,0 l/m 2 min 0 min 951 W/m 46,0 km/h (6 Bft) 97,83 %
30.04.2017 13:38 18,1 C 21,7 C 18,3 C 42 % 0 lf 1008,7 hPa 0,0 l/m 2 min 0 min 925 W/m 52,3 km/h (7 Bft) 100,00 %
30.04.2017 13:40 18,1 C 21,7 C 17,8 C 42 % 0 lf 1008,6 hPa 0,0 l/m 2 min 0 min 926 W/m 48,1 km/h (6 Bft) 97,87 %
30.04.2017 13:42 18,1 C 22,8 C 17,8 C 42 % 0 lf 1008,6 hPa 0,0 l/m 2 min 0 min 921 W/m 46,0 km/h (6 Bft) 95,74 %
30.04.2017 13:44 18,1 C 23,3 C 18,3 C 42 % 0 lf 1008,5 hPa 0,0 l/m 2 min 0 min 905 W/m 29,3 km/h (5 Bft) 100,00 %
30.04.2017 13:46 18,2 C 22,8 C 18,3 C 43 % 0 lf 1008,7 hPa 0,0 l/m 2 min 0 min 901 W/m 41,8 km/h (6 Bft) 97,87 %
30.04.2017 13:48 18,2 C 23,3 C 18,3 C 43 % 0 lf 1008,7 hPa 0,0 l/m 2 min 0 min 913 W/m 35,6 km/h (5 Bft) 97,83 %
30.04.2017 13:50 18,3 C 22,8 C 18,3 C 42 % 0 lf 1008,6 hPa 0,0 l/m 2 min 0 min 929 W/m 37,7 km/h (5 Bft) 100,00 %
30.04.2017 13:52 18,3 C 23,3 C 18,3 C 43 % 0 lf 1008,5 hPa 0,0 l/m 2 min 0 min 940 W/m 35,6 km/h (5 Bft) 100,00 %
30.04.2017 13:54 18,3 C 22,8 C 18,3 C 43 % 0 lf 1008,6 hPa 0,0 l/m 2 min 0 min 940 W/m 39,7 km/h (6 Bft) 100,00 %
30.04.2017 13:56 18,3 C 21,1 C 17,8 C 42 % 0 lf 1008,5 hPa 0,0 l/m 2 min 0 min 633 W/m 35,6 km/h (5 Bft) 100,00 %
30.04.2017 13:58 18,3 C 21,1 C 18,3 C 43 % 0 lf 1008,7 hPa 0,0 l/m 2 min 0 min 469 W/m 35,6 km/h (5 Bft) 100,00 %
30.04.2017 14:00 18,2 C 22,2 C 20,0 C 43 % 0 lf 1008,5 hPa 0,0 l/m 2 min 0 min 674 W/m 48,1 km/h (6 Bft) 100,00 %
30.04.2017 14:02 18,2 C 22,8 C 20,6 C 44 % 0 lf 1008,5 hPa 0,0 l/m 2 min 0 min 803 W/m 27,2 km/h (4 Bft) 100,00 %
30.04.2017 14:04 18,2 C 23,3 C 21,7 C 44 % 0 lf 1008,5 hPa 0,0 l/m 2 min 0 min 817 W/m 31,4 km/h (5 Bft) 97,87 %
30.04.2017 14:06 18,3 C 23,3 C 22,8 C 45 % 0 lf 1008,5 hPa 0,0 l/m 2 min 0 min 942 W/m 35,6 km/h (5 Bft) 95,74 %
30.04.2017 14:08 18,3 C 22,8 C 22,8 C 44 % 0 lf 1008,5 hPa 0,0 l/m 2 min 0 min 914 W/m 43,9 km/h (6 Bft) 95,74 %
30.04.2017 14:10 18,4 C 22,8 C 23,3 C 44 % 0 lf 1008,4 hPa 0,0 l/m 2 min 0 min 899 W/m 29,3 km/h (5 Bft) 97,87 %
30.04.2017 14:12 18,4 C 22,8 C 23,3 C 44 % 0 lf 1008,4 hPa 0,0 l/m 2 min 0 min 896 W/m 37,7 km/h (5 Bft) 97,83 %
30.04.2017 14:14 18,5 C 22,2 C 23,3 C 43 % 0 lf 1008,4 hPa 0,0 l/m 2 min 0 min 889 W/m 48,1 km/h (6 Bft) 95,74 %
30.04.2017 14:16 18,4 C 21,7 C 22,2 C 42 % 0 lf 1008,4 hPa 0,0 l/m 2 min 0 min 885 W/m 39,7 km/h (6 Bft) 97,87 %
30.04.2017 14:18 18,4 C 23,3 C 22,8 C 44 % 0 lf 1008,3 hPa 0,0 l/m 2 min 0 min 881 W/m 43,9 km/h (6 Bft) 97,87 %
30.04.2017 14:20 18,4 C 22,8 C 22,8 C 44 % 0 lf 1008,3 hPa 0,0 l/m 2 min 0 min 836 W/m 33,5 km/h (5 Bft) 97,87 %
30.04.2017 14:22 18,4 C 22,2 C 22,8 C 44 % 0 lf 1008,2 hPa 0,0 l/m 2 min 0 min 821 W/m 29,3 km/h (5 Bft) 95,65 %
30.04.2017 14:24 18,5 C 22,8 C 23,3 C 44 % 0 lf 1008,2 hPa 0,0 l/m 2 min 0 min 912 W/m 39,7 km/h (6 Bft) 95,74 %
30.04.2017 14:26 18,4 C 22,2 C 22,8 C 44 % 0 lf 1008,2 hPa 0,0 l/m 2 min 0 min 912 W/m 43,9 km/h (6 Bft) 97,87 %
30.04.2017 14:28 18,4 C 22,8 C 23,3 C 44 % 0 lf 1008,2 hPa 0,0 l/m 2 min 0 min 981 W/m 33,5 km/h (5 Bft) 97,87 %
30.04.2017 14:30 18,5 C 23,3 C 23,9 C 44 % 0 lf 1008,1 hPa 0,0 l/m 2 min 0 min 962 W/m 33,5 km/h (5 Bft) 95,74 %
30.04.2017 14:32 18,5 C 23,3 C 24,4 C 44 % 0 lf 1008,1 hPa 0,0 l/m 2 min 0 min 945 W/m 31,4 km/h (5 Bft) 95,74 %
30.04.2017 14:34 18,6 C 22,8 C 23,3 C 43 % 0 lf 1008,0 hPa 0,0 l/m 2 min 0 min 745 W/m 25,1 km/h (4 Bft) 95,65 %
30.04.2017 14:36 18,6 C 20,6 C 22,2 C 43 % 0 lf 1008,1 hPa 0,0 l/m 2 min 0 min 476 W/m 43,9 km/h (6 Bft) 95,74 %
30.04.2017 14:38 18,5 C 20,6 C 21,7 C 43 % 0 lf 1008,0 hPa 0,0 l/m 2 min 0 min 468 W/m 27,2 km/h (4 Bft) 97,87 %
30.04.2017 14:40 18,4 C 20,0 C 21,1 C 43 % 0 lf 1008,0 hPa 0,0 l/m 2 min 0 min 454 W/m 39,7 km/h (6 Bft) 93,62 %
30.04.2017 14:42 18,3 C 20,0 C 20,6 C 43 % 0 lf 1008,0 hPa 0,0 l/m 2 min 0 min 425 W/m 35,6 km/h (5 Bft) 91,49 %
30.04.2017 14:44 18,2 C 20,0 C 20,6 C 44 % 0 lf 1008,0 hPa 0,0 l/m 2 min 0 min 467 W/m 31,4 km/h (5 Bft) 95,74 %
30.04.2017 14:46 18,2 C 21,1 C 21,1 C 44 % 0 lf 1007,9 hPa 0,0 l/m 2 min 0 min 479 W/m 31,4 km/h (5 Bft) 91,30 %
30.04.2017 14:48 18,1 C 21,1 C 21,1 C 45 % 0 lf 1007,9 hPa 0,0 l/m 2 min 0 min 450 W/m 37,7 km/h (5 Bft) 91,49 %
30.04.2017 14:50 18,1 C 21,7 C 22,2 C 44 % 0 lf 1007,9 hPa 0,0 l/m 0 min 0 min 316 W/m 46,0 km/h (6 Bft) 93,62 %
30.04.2017 14:52 18,1 C 21,7 C 22,8 C 43 % 0 lf 1007,9 hPa 0,0 l/m 2 min 0 min 825 W/m 39,7 km/h (6 Bft) 95,74 %
30.04.2017 14:54 18,2 C 22,2 C 23,9 C 43 % 0 lf 1007,8 hPa 0,0 l/m 2 min 0 min 881 W/m 41,8 km/h (6 Bft) 93,62 %
30.04.2017 14:56 18,2 C 22,8 C 24,4 C 44 % 0 lf 1007,8 hPa 0,0 l/m 2 min 0 min 869 W/m 39,7 km/h (6 Bft) 93,62 %
30.04.2017 14:58 18,3 C 22,2 C 25,0 C 43 % 0 lf 1007,7 hPa 0,0 l/m 2 min 0 min 839 W/m 43,9 km/h (6 Bft) 93,48 %
30.04.2017 15:00 18,3 C 22,8 C 25,0 C 43 % 0 lf 1007,5 hPa 0,0 l/m 2 min 0 min 836 W/m 31,4 km/h (5 Bft) 95,74 %
30.04.2017 15:02 18,4 C 23,3 C 26,1 C 44 % 0 lf 1007,6 hPa 0,0 l/m 2 min 0 min 835 W/m 29,3 km/h (5 Bft) 95,74 %
30.04.2017 15:04 18,6 C 23,3 C 26,1 C 43 % 0 lf 1007,6 hPa 0,0 l/m 2 min 0 min 835 W/m 46,0 km/h (6 Bft) 93,62 %
30.04.2017 15:06 18,7 C 23,3 C 26,1 C 43 % 0 lf 1007,5 hPa 0,0 l/m 2 min 0 min 834 W/m 29,3 km/h (5 Bft) 93,62 %
30.04.2017 15:08 18,7 C 23,9 C 26,7 C 44 % 0 lf 1007,4 hPa 0,0 l/m 2 min 0 min 825 W/m 29,3 km/h (5 Bft) 95,74 %
30.04.2017 15:10 18,8 C 23,9 C 27,2 C 43 % 0 lf 1007,5 hPa 0,0 l/m 2 min 0 min 821 W/m 46,0 km/h (6 Bft) 95,65 %
30.04.2017 15:12 18,9 C 23,3 C 26,7 C 41 % 0 lf 1007,5 hPa 0,0 l/m 2 min 0 min 820 W/m 43,9 km/h (6 Bft) 97,87 %
30.04.2017 15:14 19,0 C 23,3 C 26,7 C 41 % 0 lf 1007,5 hPa 0,0 l/m 2 min 0 min 799 W/m 35,6 km/h (5 Bft) 95,74 %
30.04.2017 15:16 19,1 C 22,8 C 25,6 C 41 % 0 lf 1007,4 hPa 0,0 l/m 2 min 0 min 758 W/m 37,7 km/h (5 Bft) 93,62 %
30.04.2017 15:18 19,1 C 23,9 C 26,1 C 41 % 0 lf 1007,3 hPa 0,0 l/m 2 min 0 min 709 W/m 31,4 km/h (5 Bft) 97,87 %
30.04.2017 15:20 19,1 C 22,8 C 25,6 C 40 % 0 lf 1007,3 hPa 0,0 l/m 2 min 0 min 700 W/m 39,7 km/h (6 Bft) 97,87 %
30.04.2017 15:22 19,1 C 22,8 C 25,0 C 40 % 0 lf 1007,2 hPa 0,0 l/m 2 min 0 min 752 W/m 41,8 km/h (6 Bft) 97,83 %
30.04.2017 15:24 19,2 C 23,3 C 26,1 C 40 % 0 lf 1007,2 hPa 0,0 l/m 2 min 0 min 802 W/m 43,9 km/h (6 Bft) 93,62 %
30.04.2017 15:26 19,2 C 23,3 C 25,6 C 40 % 0 lf 1007,1 hPa 0,0 l/m 2 min 0 min 808 W/m 35,6 km/h (5 Bft) 97,87 %
30.04.2017 15:28 19,1 C 22,2 C 25,0 C 40 % 0 lf 1007,1 hPa 0,0 l/m 2 min 0 min 786 W/m 48,1 km/h (6 Bft) 95,74 %
30.04.2017 15:30 19,1 C 22,8 C 25,0 C 40 % 0 lf 1007,0 hPa 0,0 l/m 2 min 0 min 760 W/m 48,1 km/h (6 Bft) 93,62 %
30.04.2017 15:32 19,1 C 22,8 C 25,0 C 40 % 0 lf 1007,0 hPa 0,0 l/m 2 min 0 min 687 W/m 41,8 km/h (6 Bft) 93,62 %
30.04.2017 15:34 19,1 C 22,8 C 25,0 C 40 % 0 lf 1007,1 hPa 0,0 l/m 2 min 0 min 665 W/m 46,0 km/h (6 Bft) 93,48 %
30.04.2017 15:36 19,1 C 22,2 C 23,9 C 40 % 0 lf 1006,9 hPa 0,0 l/m 2 min 0 min 662 W/m 39,7 km/h (6 Bft) 95,74 %
30.04.2017 15:38 19,1 C 22,8 C 23,9 C 40 % 0 lf 1007,0 hPa 0,0 l/m 2 min 0 min 570 W/m 33,5 km/h (5 Bft) 95,74 %
30.04.2017 15:40 19,2 C 22,2 C 23,3 C 40 % 0 lf 1006,9 hPa 0,0 l/m 2 min 0 min 569 W/m 35,6 km/h (5 Bft) 97,87 %
30.04.2017 15:42 19,1 C 21,1 C 22,2 C 39 % 0 lf 1007,0 hPa 0,0 l/m 2 min 0 min 499 W/m 43,9 km/h (6 Bft) 97,87 %
30.04.2017 15:44 19,1 C 21,7 C 21,7 C 40 % 0 lf 1006,9 hPa 0,0 l/m 2 min 0 min 494 W/m 39,7 km/h (6 Bft) 97,83 %
30.04.2017 15:46 19,0 C 22,2 C 21,7 C 40 % 0 lf 1006,9 hPa 0,0 l/m 2 min 0 min 608 W/m 29,3 km/h (5 Bft) 93,62 %
30.04.2017 15:48 19,0 C 23,3 C 22,2 C 41 % 0 lf 1006,8 hPa 0,0 l/m 2 min 0 min 684 W/m 27,2 km/h (4 Bft) 95,74 %
30.04.2017 15:50 19,1 C 23,9 C 22,8 C 41 % 0 lf 1006,9 hPa 0,0 l/m 2 min 0 min 717 W/m 29,3 km/h (5 Bft) 97,87 %
30.04.2017 15:52 19,1 C 22,8 C 22,8 C 41 % 0 lf 1006,9 hPa 0,0 l/m 2 min 0 min 715 W/m 39,7 km/h (6 Bft) 97,87 %
30.04.2017 15:54 19,1 C 23,3 C 23,3 C 40 % 0 lf 1006,9 hPa 0,0 l/m 2 min 0 min 771 W/m 33,5 km/h (5 Bft) 97,87 %
30.04.2017 15:56 19,1 C 24,4 C 24,4 C 41 % 0 lf 1006,8 hPa 0,0 l/m 2 min 0 min 797 W/m 35,6 km/h (5 Bft) 97,83 %
30.04.2017 15:58 19,2 C 22,8 C 24,4 C 41 % 0 lf 1006,7 hPa 0,0 l/m 2 min 0 min 725 W/m 31,4 km/h (5 Bft) 95,74 %
30.04.2017 16:00 19,2 C 23,3 C 24,4 C 41 % 0 lf 1006,7 hPa 0,0 l/m 2 min 0 min 678 W/m 29,3 km/h (5 Bft) 97,87 %
30.04.2017 16:02 19,2 C 23,3 C 25,0 C 41 % 0 lf 1006,7 hPa 0,0 l/m 2 min 0 min 775 W/m 35,6 km/h (5 Bft) 95,74 %
30.04.2017 16:04 19,3 C 23,3 C 25,0 C 41 % 0 lf 1006,7 hPa 0,0 l/m 2 min 0 min 723 W/m 39,7 km/h (6 Bft) 97,87 %
30.04.2017 16:06 19,3 C 22,2 C 23,9 C 40 % 0 lf 1006,8 hPa 0,0 l/m 2 min 0 min 657 W/m 35,6 km/h (5 Bft) 97,87 %
30.04.2017 16:08 19,3 C 22,8 C 22,8 C 41 % 0 lf 1006,6 hPa 0,0 l/m 2 min 0 min 659 W/m 46,0 km/h (6 Bft) 93,48 %
30.04.2017 16:10 19,3 C 22,8 C 21,1 C 41 % 0 lf 1006,6 hPa 0,0 l/m 2 min 0 min 775 W/m 39,7 km/h (6 Bft) 97,87 %
30.04.2017 16:12 19,3 C 22,8 C 20,6 C 41 % 0 lf 1006,6 hPa 0,0 l/m 2 min 0 min 756 W/m 39,7 km/h (6 Bft) 95,74 %
30.04.2017 16:14 19,4 C 23,3 C 20,6 C 42 % 0 lf 1006,6 hPa 0,0 l/m 2 min 0 min 730 W/m 29,3 km/h (5 Bft) 97,87 %
30.04.2017 16:16 19,4 C 24,4 C 20,0 C 42 % 0 lf 1006,5 hPa 0,0 l/m 2 min 0 min 727 W/m 23,0 km/h (4 Bft) 95,74 %
30.04.2017 16:18 19,5 C 24,4 C 20,6 C 42 % 0 lf 1006,5 hPa 0,0 l/m 2 min 0 min 741 W/m 29,3 km/h (5 Bft) 97,87 %
30.04.2017 16:20 19,5 C 23,9 C 21,1 C 41 % 0 lf 1006,5 hPa 0,0 l/m 2 min 0 min 702 W/m 27,2 km/h (4 Bft) 100,00 %
30.04.2017 16:22 19,6 C 23,9 C 21,1 C 42 % 0 lf 1006,4 hPa 0,0 l/m 2 min 0 min 600 W/m 33,5 km/h (5 Bft) 97,87 %
30.04.2017 16:24 19,7 C 23,9 C 22,2 C 42 % 0 lf 1006,4 hPa 0,0 l/m 2 min 0 min 617 W/m 31,4 km/h (5 Bft) 100,00 %
30.04.2017 16:26 19,7 C 22,8 C 22,8 C 40 % 0 lf 1006,5 hPa 0,0 l/m 2 min 0 min 637 W/m 33,5 km/h (5 Bft) 97,87 %
30.04.2017 16:28 19,7 C 22,2 C 22,8 C 41 % 0 lf 1006,4 hPa 0,0 l/m 2 min 0 min 578 W/m 52,3 km/h (7 Bft) 97,87 %
30.04.2017 16:30 19,6 C 22,8 C 21,7 C 41 % 0 lf 1006,5 hPa 0,0 l/m 2 min 0 min 626 W/m 41,8 km/h (6 Bft) 97,87 %
30.04.2017 16:32 19,6 C 22,8 C 22,2 C 40 % 0 lf 1006,5 hPa 0,0 l/m 2 min 0 min 673 W/m 50,2 km/h (7 Bft) 97,83 %
30.04.2017 16:34 19,5 C 22,8 C 22,8 C 40 % 0 lf 1006,5 hPa 0,0 l/m 2 min 0 min 674 W/m 46,0 km/h (6 Bft) 95,74 %
30.04.2017 16:36 19,4 C 22,2 C 22,2 C 40 % 0 lf 1006,4 hPa 0,0 l/m 2 min 0 min 671 W/m 37,7 km/h (5 Bft) 93,62 %
30.04.2017 16:38 19,4 C 23,3 C 21,1 C 41 % 0 lf 1006,3 hPa 0,0 l/m 2 min 0 min 664 W/m 37,7 km/h (5 Bft) 97,87 %
30.04.2017 16:40 19,4 C 23,3 C 21,1 C 41 % 0 lf 1006,2 hPa 0,0 l/m 2 min 0 min 648 W/m 43,9 km/h (6 Bft) 95,74 %
30.04.2017 16:42 19,4 C 22,8 C 21,7 C 40 % 0 lf 1006,1 hPa 0,0 l/m 2 min 0 min 640 W/m 48,1 km/h (6 Bft) 93,62 %
30.04.2017 16:44 19,4 C 22,2 C 21,7 C 40 % 0 lf 1006,1 hPa 0,0 l/m 2 min 0 min 617 W/m 31,4 km/h (5 Bft) 97,83 %
30.04.2017 16:46 19,4 C 22,8 C 21,1 C 41 % 0 lf 1006,1 hPa 0,0 l/m 2 min 0 min 580 W/m 31,4 km/h (5 Bft) 95,74 %
30.04.2017 16:48 19,4 C 23,3 C 20,6 C 41 % 0 lf 1006,1 hPa 0,0 l/m 2 min 0 min 613 W/m 37,7 km/h (5 Bft) 93,62 %
30.04.2017 16:50 19,4 C 22,2 C 20,0 C 40 % 0 lf 1006,1 hPa 0,0 l/m 2 min 0 min 612 W/m 31,4 km/h (5 Bft) 93,62 %
30.04.2017 16:52 19,4 C 21,7 C 19,4 C 39 % 0 lf 1006,1 hPa 0,0 l/m 2 min 0 min 601 W/m 33,5 km/h (5 Bft) 91,49 %
30.04.2017 16:54 19,4 C 22,2 C 19,4 C 40 % 0 lf 1005,9 hPa 0,0 l/m 2 min 0 min 584 W/m 29,3 km/h (5 Bft) 95,74 %
30.04.2017 16:56 19,4 C 22,2 C 18,9 C 39 % 0 lf 1006,0 hPa 0,0 l/m 2 min 0 min 567 W/m 37,7 km/h (5 Bft) 91,30 %
30.04.2017 16:58 19,4 C 22,2 C 18,9 C 40 % 0 lf 1005,9 hPa 0,0 l/m 2 min 0 min 507 W/m 37,7 km/h (5 Bft) 95,74 %
30.04.2017 17:00 19,4 C 22,8 C 18,9 C 41 % 0 lf 1006,0 hPa 0,0 l/m 2 min 0 min 571 W/m 37,7 km/h (5 Bft) 95,74 %
30.04.2017 17:02 19,4 C 22,8 C 19,4 C 40 % 0 lf 1005,9 hPa 0,0 l/m 2 min 0 min 565 W/m 29,3 km/h (5 Bft) 91,49 %
30.04.2017 17:04 19,4 C 22,8 C 18,9 C 40 % 0 lf 1005,9 hPa 0,0 l/m 2 min 0 min 541 W/m 31,4 km/h (5 Bft) 95,74 %
30.04.2017 17:06 19,4 C 22,8 C 18,9 C 40 % 0 lf 1005,9 hPa 0,0 l/m 2 min 0 min 553 W/m 37,7 km/h (5 Bft) 93,62 %
30.04.2017 17:08 19,4 C 22,2 C 18,9 C 40 % 0 lf 1005,8 hPa 0,0 l/m 2 min 0 min 557 W/m 33,5 km/h (5 Bft) 93,48 %
30.04.2017 17:10 19,4 C 22,8 C 18,9 C 40 % 0 lf 1005,8 hPa 0,0 l/m 2 min 0 min 566 W/m 33,5 km/h (5 Bft) 95,74 %
30.04.2017 17:12 19,4 C 22,8 C 18,9 C 40 % 0 lf 1005,7 hPa 0,0 l/m 2 min 0 min 563 W/m 25,1 km/h (4 Bft) 93,62 %
30.04.2017 17:14 19,4 C 23,3 C 18,9 C 41 % 0 lf 1005,6 hPa 0,0 l/m 2 min 0 min 549 W/m 33,5 km/h (5 Bft) 97,87 %
30.04.2017 17:16 19,4 C 23,3 C 18,9 C 41 % 0 lf 1005,7 hPa 0,0 l/m 2 min 0 min 542 W/m 27,2 km/h (4 Bft) 95,74 %
30.04.2017 17:18 19,5 C 23,3 C 18,9 C 41 % 0 lf 1005,6 hPa 0,0 l/m 2 min 0 min 540 W/m 29,3 km/h (5 Bft) 95,65 %
30.04.2017 17:20 19,5 C 22,8 C 18,3 C 41 % 0 lf 1005,7 hPa 0,0 l/m 2 min 0 min 530 W/m 46,0 km/h (6 Bft) 96,23 %
30.04.2017 17:22 19,5 C 22,8 C 18,3 C 40 % 0 lf 1005,7 hPa 0,0 l/m 2 min 0 min 530 W/m 33,5 km/h (5 Bft) 95,74 %
30.04.2017 17:24 19,5 C 21,7 C 18,3 C 40 % 0 lf 1005,5 hPa 0,0 l/m 2 min 0 min 509 W/m 37,7 km/h (5 Bft) 100,00 %
30.04.2017 17:26 19,4 C 21,1 C 18,9 C 40 % 0 lf 1005,4 hPa 0,0 l/m 2 min 0 min 498 W/m 35,6 km/h (5 Bft) 100,00 %
30.04.2017 17:28 19,4 C 20,6 C 18,9 C 40 % 0 lf 1005,5 hPa 0,0 l/m 2 min 0 min 442 W/m 29,3 km/h (5 Bft) 97,83 %
30.04.2017 17:30 19,4 C 20,6 C 18,3 C 41 % 0 lf 1005,5 hPa 0,0 l/m 2 min 0 min 478 W/m 27,2 km/h (4 Bft) 97,87 %
30.04.2017 17:32 19,3 C 21,1 C 18,3 C 41 % 0 lf 1005,5 hPa 0,0 l/m 2 min 0 min 468 W/m 20,9 km/h (4 Bft) 97,56 %
30.04.2017 17:34 19,3 C 20,6 C 17,8 C 41 % 0 lf 1005,6 hPa 0,0 l/m 2 min 0 min 488 W/m 35,6 km/h (5 Bft) 100,00 %
30.04.2017 17:36 19,3 C 20,6 C 17,8 C 41 % 0 lf 1005,5 hPa 0,0 l/m 2 min 0 min 488 W/m 25,1 km/h (4 Bft) 100,00 %
30.04.2017 17:38 19,2 C 20,0 C 17,8 C 41 % 0 lf 1005,5 hPa 0,0 l/m 2 min 0 min 457 W/m 46,0 km/h (6 Bft) 95,74 %
30.04.2017 17:40 19,2 C 20,6 C 17,8 C 41 % 0 lf 1005,4 hPa 0,0 l/m 2 min 0 min 422 W/m 29,3 km/h (5 Bft) 100,00 %
30.04.2017 17:42 19,2 C 20,0 C 17,8 C 41 % 0 lf 1005,5 hPa 0,0 l/m 2 min 0 min 415 W/m 39,7 km/h (6 Bft) 100,00 %
30.04.2017 17:44 19,2 C 20,6 C 17,8 C 41 % 0 lf 1005,4 hPa 0,0 l/m 2 min 0 min 412 W/m 33,5 km/h (5 Bft) 97,87 %
30.04.2017 17:46 19,1 C 20,0 C 17,8 C 41 % 0 lf 1005,6 hPa 0,0 l/m 2 min 0 min 429 W/m 39,7 km/h (6 Bft) 100,00 %
30.04.2017 17:48 19,1 C 19,4 C 17,2 C 41 % 0 lf 1005,4 hPa 0,0 l/m 2 min 0 min 433 W/m 35,6 km/h (5 Bft) 95,74 %
30.04.2017 17:50 19,1 C 20,0 C 17,8 C 41 % 0 lf 1005,4 hPa 0,0 l/m 2 min 0 min 429 W/m 37,7 km/h (5 Bft) 98,11 %
30.04.2017 17:52 19,0 C 19,4 C 17,8 C 42 % 0 lf 1005,4 hPa 0,0 l/m 2 min 0 min 439 W/m 33,5 km/h (5 Bft) 100,00 %
30.04.2017 17:54 19,0 C 19,4 C 17,2 C 41 % 0 lf 1005,2 hPa 0,0 l/m 2 min 0 min 372 W/m 37,7 km/h (5 Bft) 95,74 %
30.04.2017 17:56 18,9 C 19,4 C 17,2 C 41 % 0 lf 1005,2 hPa 0,0 l/m 2 min 0 min 357 W/m 46,0 km/h (6 Bft) 100,00 %
30.04.2017 17:58 18,9 C 19,4 C 17,2 C 42 % 0 lf 1005,2 hPa 0,0 l/m 2 min 0 min 366 W/m 31,4 km/h (5 Bft) 100,00 %
30.04.2017 18:00 18,9 C 19,4 C 17,2 C 42 % 0 lf 1005,1 hPa 0,0 l/m 2 min 0 min 352 W/m 23,0 km/h (4 Bft) 97,87 %
30.04.2017 18:02 18,9 C 19,4 C 17,2 C 42 % 0 lf 1005,0 hPa 0,0 l/m 2 min 0 min 380 W/m 35,6 km/h (5 Bft) 97,87 %
30.04.2017 18:04 18,9 C 19,4 C 17,2 C 42 % 0 lf 1005,2 hPa 0,0 l/m 2 min 0 min 379 W/m 35,6 km/h (5 Bft) 97,87 %
30.04.2017 18:06 18,8 C 19,4 C 17,2 C 41 % 0 lf 1005,1 hPa 0,0 l/m 2 min 0 min 330 W/m 39,7 km/h (6 Bft) 96,15 %
30.04.2017 18:08 18,8 C 18,9 C 17,2 C 42 % 0 lf 1005,1 hPa 0,0 l/m 2 min 0 min 343 W/m 35,6 km/h (5 Bft) 97,87 %
30.04.2017 18:10 18,8 C 19,4 C 17,2 C 42 % 0 lf 1005,1 hPa 0,0 l/m 2 min 0 min 347 W/m 20,9 km/h (4 Bft) 97,87 %
30.04.2017 18:12 18,8 C 19,4 C 17,2 C 42 % 0 lf 1005,1 hPa 0,0 l/m 2 min 0 min 316 W/m 31,4 km/h (5 Bft) 95,74 %
30.04.2017 18:14 18,8 C 19,4 C 17,2 C 43 % 0 lf 1005,0 hPa 0,0 l/m 2 min 0 min 335 W/m 29,3 km/h (5 Bft) 97,87 %
30.04.2017 18:16 18,8 C 19,4 C 17,2 C 43 % 0 lf 1004,9 hPa 0,0 l/m 2 min 0 min 355 W/m 37,7 km/h (5 Bft) 97,56 %
30.04.2017 18:18 18,8 C 19,4 C 17,2 C 43 % 0 lf 1004,9 hPa 0,0 l/m 2 min 0 min 349 W/m 23,0 km/h (4 Bft) 97,83 %
30.04.2017 18:20 18,7 C 19,4 C 17,2 C 43 % 0 lf 1004,9 hPa 0,0 l/m 2 min 0 min 349 W/m 39,7 km/h (6 Bft) 98,11 %
30.04.2017 18:22 18,7 C 19,4 C 17,2 C 43 % 0 lf 1005,0 hPa 0,0 l/m 2 min 0 min 319 W/m 31,4 km/h (5 Bft) 97,87 %
30.04.2017 18:24 18,7 C 18,9 C 17,2 C 43 % 0 lf 1004,9 hPa 0,0 l/m 2 min 0 min 294 W/m 25,1 km/h (4 Bft) 97,87 %
30.04.2017 18:26 18,7 C 18,9 C 17,2 C 43 % 0 lf 1004,9 hPa 0,0 l/m 2 min 0 min 312 W/m 29,3 km/h (5 Bft) 97,87 %
30.04.2017 18:28 18,7 C 18,9 C 17,2 C 43 % 0 lf 1004,8 hPa 0,0 l/m 2 min 0 min 312 W/m 31,4 km/h (5 Bft) 95,65 %
30.04.2017 18:30 18,7 C 18,9 C 17,2 C 43 % 0 lf 1004,8 hPa 0,0 l/m 2 min 0 min 322 W/m 23,0 km/h (4 Bft) 97,87 %
30.04.2017 18:32 18,6 C 18,9 C 17,2 C 43 % 0 lf 1004,6 hPa 0,0 l/m 2 min 0 min 321 W/m 25,1 km/h (4 Bft) 95,12 %
30.04.2017 18:34 18,6 C 18,9 C 16,7 C 43 % 0 lf 1004,6 hPa 0,0 l/m 2 min 0 min 285 W/m 31,4 km/h (5 Bft) 95,74 %
30.04.2017 18:36 18,6 C 18,9 C 17,2 C 43 % 0 lf 1004,5 hPa 0,0 l/m 2 min 0 min 302 W/m 37,7 km/h (5 Bft) 96,23 %
30.04.2017 18:38 18,6 C 18,9 C 17,2 C 43 % 0 lf 1004,6 hPa 0,0 l/m 2 min 0 min 301 W/m 33,5 km/h (5 Bft) 95,65 %
30.04.2017 18:40 18,6 C 18,9 C 16,7 C 44 % 0 lf 1004,6 hPa 0,0 l/m 2 min 0 min 284 W/m 23,0 km/h (4 Bft) 95,74 %
30.04.2017 18:42 18,6 C 18,9 C 16,7 C 44 % 0 lf 1004,5 hPa 0,0 l/m 2 min 0 min 282 W/m 25,1 km/h (4 Bft) 95,74 %
30.04.2017 18:44 18,6 C 18,9 C 16,7 C 44 % 0 lf 1004,6 hPa 0,0 l/m 2 min 0 min 295 W/m 20,9 km/h (4 Bft) 95,74 %
30.04.2017 18:46 18,6 C 18,9 C 16,7 C 43 % 0 lf 1004,5 hPa 0,0 l/m 2 min 0 min 277 W/m 31,4 km/h (5 Bft) 95,12 %
30.04.2017 18:48 18,6 C 18,9 C 16,7 C 44 % 0 lf 1004,5 hPa 0,0 l/m 2 min 0 min 268 W/m 27,2 km/h (4 Bft) 93,62 %
30.04.2017 18:50 18,6 C 18,9 C 16,7 C 43 % 0 lf 1004,5 hPa 0,0 l/m 2 min 0 min 268 W/m 31,4 km/h (5 Bft) 96,15 %
30.04.2017 18:52 18,6 C 18,9 C 16,7 C 43 % 0 lf 1004,5 hPa 0,0 l/m 2 min 0 min 268 W/m 27,2 km/h (4 Bft) 95,12 %
30.04.2017 18:54 18,5 C 18,9 C 16,7 C 43 % 0 lf 1004,5 hPa 0,0 l/m 2 min 0 min 222 W/m 27,2 km/h (4 Bft) 95,74 %
30.04.2017 18:56 18,5 C 18,9 C 16,7 C 42 % 0 lf 1004,4 hPa 0,0 l/m 2 min 0 min 166 W/m 31,4 km/h (5 Bft) 91,49 %
30.04.2017 18:58 18,5 C 18,9 C 16,7 C 42 % 0 lf 1004,4 hPa 0,0 l/m 0 min 0 min 122 W/m 29,3 km/h (5 Bft) 91,49 %
30.04.2017 19:00 18,4 C 18,9 C 16,7 C 43 % 0 lf 1004,4 hPa 0,0 l/m 0 min 0 min 123 W/m 29,3 km/h (5 Bft) 95,74 %
30.04.2017 19:02 18,4 C 18,3 C 16,7 C 43 % 0 lf 1004,4 hPa 0,0 l/m 2 min 0 min 141 W/m 25,1 km/h (4 Bft) 95,74 %
30.04.2017 19:04 18,4 C 18,3 C 16,7 C 43 % 0 lf 1004,4 hPa 0,0 l/m 2 min 0 min 206 W/m 25,1 km/h (4 Bft) 95,65 %
30.04.2017 19:06 18,3 C 18,9 C 16,7 C 42 % 0 lf 1004,3 hPa 0,0 l/m 2 min 0 min 227 W/m 27,2 km/h (4 Bft) 94,34 %
30.04.2017 19:08 18,3 C 18,9 C 16,7 C 42 % 0 lf 1004,4 hPa 0,0 l/m 2 min 0 min 221 W/m 20,9 km/h (4 Bft) 97,56 %
30.04.2017 19:10 18,3 C 18,9 C 16,7 C 42 % 0 lf 1004,3 hPa 0,0 l/m 2 min 0 min 218 W/m 31,4 km/h (5 Bft) 91,49 %
30.04.2017 19:12 18,3 C 18,9 C 16,7 C 42 % 0 lf 1004,3 hPa 0,0 l/m 2 min 0 min 216 W/m 27,2 km/h (4 Bft) 93,62 %
30.04.2017 19:14 18,3 C 18,9 C 16,7 C 42 % 0 lf 1004,3 hPa 0,0 l/m 2 min 0 min 160 W/m 29,3 km/h (5 Bft) 93,62 %
30.04.2017 19:16 18,3 C 18,9 C 16,7 C 42 % 0 lf 1004,4 hPa 0,0 l/m 2 min 0 min 159 W/m 27,2 km/h (4 Bft) 91,30 %
30.04.2017 19:18 18,3 C 18,9 C 16,7 C 42 % 0 lf 1004,4 hPa 0,0 l/m 2 min 0 min 186 W/m 29,3 km/h (5 Bft) 93,62 %
30.04.2017 19:20 18,3 C 18,9 C 16,7 C 42 % 0 lf 1004,4 hPa 0,0 l/m 2 min 0 min 182 W/m 41,8 km/h (6 Bft) 94,34 %
30.04.2017 19:22 18,3 C 18,9 C 16,7 C 42 % 0 lf 1004,4 hPa 0,0 l/m 2 min 0 min 171 W/m 31,4 km/h (5 Bft) 91,49 %
30.04.2017 19:24 18,3 C 18,3 C 16,7 C 42 % 0 lf 1004,4 hPa 0,0 l/m 2 min 0 min 165 W/m 27,2 km/h (4 Bft) 91,49 %
30.04.2017 19:26 18,3 C 18,3 C 16,1 C 42 % 0 lf 1004,3 hPa 0,0 l/m 2 min 0 min 142 W/m 27,2 km/h (4 Bft) 91,30 %
30.04.2017 19:28 18,3 C 18,3 C 16,1 C 42 % 0 lf 1004,4 hPa 0,0 l/m 2 min 0 min 147 W/m 29,3 km/h (5 Bft) 92,68 %
30.04.2017 19:30 18,3 C 18,3 C 16,7 C 42 % 0 lf 1004,4 hPa 0,0 l/m 2 min 0 min 135 W/m 29,3 km/h (5 Bft) 91,49 %
30.04.2017 19:32 18,2 C 18,3 C 16,1 C 42 % 0 lf 1004,3 hPa 0,0 l/m 2 min 0 min 124 W/m 33,5 km/h (5 Bft) 93,62 %
30.04.2017 19:34 18,2 C 18,3 C 16,1 C 42 % 0 lf 1004,5 hPa 0,0 l/m 2 min 0 min 99 W/m 31,4 km/h (5 Bft) 95,74 %
30.04.2017 19:36 18,2 C 18,3 C 16,1 C 42 % 0 lf 1004,4 hPa 0,0 l/m 2 min 0 min 96 W/m 27,2 km/h (4 Bft) 94,34 %
30.04.2017 19:38 18,2 C 18,3 C 16,1 C 42 % 0 lf 1004,4 hPa 0,0 l/m 2 min 0 min 94 W/m 27,2 km/h (4 Bft) 97,83 %
30.04.2017 19:40 18,2 C 18,3 C 16,1 C 42 % 0 lf 1004,5 hPa 0,0 l/m 2 min 0 min 94 W/m 27,2 km/h (4 Bft) 95,74 %
30.04.2017 19:42 18,2 C 18,3 C 16,1 C 42 % 0 lf 1004,3 hPa 0,0 l/m 2 min 0 min 90 W/m 25,1 km/h (4 Bft) 95,12 %
30.04.2017 19:44 18,1 C 18,3 C 16,1 C 42 % 0 lf 1004,4 hPa 0,0 l/m 2 min 0 min 86 W/m 29,3 km/h (5 Bft) 95,74 %
30.04.2017 19:46 18,1 C 17,8 C 15,6 C 42 % 0 lf 1004,4 hPa 0,0 l/m 2 min 0 min 86 W/m 33,5 km/h (5 Bft) 95,74 %
30.04.2017 19:48 18,1 C 17,8 C 16,1 C 42 % 0 lf 1004,4 hPa 0,0 l/m 2 min 0 min 89 W/m 27,2 km/h (4 Bft) 97,87 %
30.04.2017 19:50 18,1 C 17,8 C 15,6 C 42 % 0 lf 1004,5 hPa 0,0 l/m 2 min 0 min 88 W/m 31,4 km/h (5 Bft) 100,00 %
30.04.2017 19:52 18,0 C 17,8 C 15,6 C 42 % 0 lf 1004,4 hPa 0,0 l/m 2 min 0 min 83 W/m 23,0 km/h (4 Bft) 97,87 %
30.04.2017 19:54 18,0 C 17,8 C 15,6 C 42 % 0 lf 1004,5 hPa 0,0 l/m 2 min 0 min 77 W/m 29,3 km/h (5 Bft) 95,74 %
30.04.2017 19:56 17,9 C 17,8 C 15,6 C 43 % 0 lf 1004,5 hPa 0,0 l/m 2 min 0 min 71 W/m 23,0 km/h (4 Bft) 100,00 %
30.04.2017 19:58 17,9 C 17,8 C 15,0 C 43 % 0 lf 1004,5 hPa 0,0 l/m 2 min 0 min 72 W/m 23,0 km/h (4 Bft) 100,00 %
30.04.2017 20:00 17,9 C 17,8 C 15,0 C 43 % 0 lf 1004,5 hPa 0,0 l/m 2 min 0 min 74 W/m 16,7 km/h (3 Bft) 100,00 %
30.04.2017 20:02 17,8 C 17,2 C 15,0 C 43 % 0 lf 1004,5 hPa 0,0 l/m 2 min 0 min 73 W/m 23,0 km/h (4 Bft) 97,56 %
30.04.2017 20:04 17,8 C 17,2 C 15,0 C 43 % 0 lf 1004,6 hPa 0,0 l/m 2 min 0 min 72 W/m 29,3 km/h (5 Bft) 100,00 %
30.04.2017 20:06 17,7 C 17,2 C 15,0 C 43 % 0 lf 1004,5 hPa 0,0 l/m 2 min 0 min 68 W/m 31,4 km/h (5 Bft) 98,11 %
30.04.2017 20:08 17,7 C 17,2 C 15,0 C 43 % 0 lf 1004,5 hPa 0,0 l/m 2 min 0 min 60 W/m 20,9 km/h (4 Bft) 100,00 %
30.04.2017 20:10 17,6 C 17,2 C 15,0 C 43 % 0 lf 1004,6 hPa 0,0 l/m 2 min 0 min 59 W/m 23,0 km/h (4 Bft) 100,00 %
30.04.2017 20:12 17,6 C 17,2 C 15,0 C 43 % 0 lf 1004,5 hPa 0,0 l/m 2 min 0 min 58 W/m 18,8 km/h (3 Bft) 100,00 %
30.04.2017 20:14 17,6 C 17,2 C 15,0 C 43 % 0 lf 1004,6 hPa 0,0 l/m 2 min 0 min 59 W/m 20,9 km/h (4 Bft) 100,00 %
30.04.2017 20:16 17,5 C 17,2 C 15,0 C 43 % 0 lf 1004,5 hPa 0,0 l/m 2 min 0 min 58 W/m 18,8 km/h (3 Bft) 95,12 %
30.04.2017 20:18 17,4 C 17,2 C 14,4 C 44 % 0 lf 1004,5 hPa 0,0 l/m 2 min 0 min 56 W/m 23,0 km/h (4 Bft) 97,87 %
30.04.2017 20:20 17,4 C 17,2 C 14,4 C 44 % 0 lf 1004,6 hPa 0,0 l/m 2 min 0 min 53 W/m 25,1 km/h (4 Bft) 98,11 %
30.04.2017 20:22 17,3 C 17,2 C 15,0 C 44 % 0 lf 1004,6 hPa 0,0 l/m 2 min 0 min 52 W/m 27,2 km/h (4 Bft) 97,87 %
30.04.2017 20:24 17,3 C 17,2 C 15,0 C 44 % 0 lf 1004,6 hPa 0,0 l/m 2 min 0 min 50 W/m 25,1 km/h (4 Bft) 97,96 %
30.04.2017 20:26 17,3 C 16,7 C 14,4 C 44 % 0 lf 1004,6 hPa 0,0 l/m 2 min 0 min 49 W/m 20,9 km/h (4 Bft) 100,00 %
30.04.2017 20:28 17,2 C 16,7 C 14,4 C 44 % 0 lf 1004,6 hPa 0,0 l/m 2 min 0 min 47 W/m 23,0 km/h (4 Bft) 97,87 %
30.04.2017 20:30 17,2 C 16,7 C 14,4 C 44 % 0 lf 1004,6 hPa 0,0 l/m 2 min 0 min 45 W/m 27,2 km/h (4 Bft) 100,00 %
30.04.2017 20:32 17,2 C 16,7 C 14,4 C 44 % 0 lf 1004,6 hPa 0,0 l/m 2 min 0 min 44 W/m 27,2 km/h (4 Bft) 100,00 %
30.04.2017 20:34 17,1 C 16,7 C 14,4 C 44 % 0 lf 1004,6 hPa 0,0 l/m 2 min 0 min 42 W/m 23,0 km/h (4 Bft) 97,83 %
30.04.2017 20:36 17,1 C 16,7 C 14,4 C 45 % 0 lf 1004,6 hPa 0,0 l/m 2 min 0 min 40 W/m 23,0 km/h (4 Bft) 100,00 %
30.04.2017 20:38 17,1 C 16,7 C 14,4 C 45 % 0 lf 1004,6 hPa 0,0 l/m 2 min 0 min 38 W/m 25,1 km/h (4 Bft) 95,74 %
30.04.2017 20:40 17,0 C 16,7 C 14,4 C 45 % 0 lf 1004,6 hPa 0,0 l/m 2 min 0 min 24 W/m 23,0 km/h (4 Bft) 100,00 %
30.04.2017 20:42 16,9 C 16,7 C 14,4 C 45 % 0 lf 1004,6 hPa 0,0 l/m 0 min 0 min 19 W/m 18,8 km/h (3 Bft) 100,00 %
30.04.2017 20:44 16,9 C 16,7 C 13,9 C 45 % 0 lf 1004,6 hPa 0,0 l/m 0 min 0 min 14 W/m 23,0 km/h (4 Bft) 100,00 %
30.04.2017 20:46 16,9 C 16,7 C 13,9 C 45 % 0 lf 1004,6 hPa 0,0 l/m 0 min 0 min 9 W/m 20,9 km/h (4 Bft) 93,48 %
30.04.2017 20:48 16,8 C 16,7 C 13,9 C 45 % 0 lf 1004,6 hPa 0,0 l/m 0 min 0 min 3 W/m 23,0 km/h (4 Bft) 100,00 %
30.04.2017 20:50 16,8 C 16,7 C 13,9 C 45 % 0 lf 1004,7 hPa 0,0 l/m 0 min 0 min 28 W/m 16,7 km/h (3 Bft) 97,87 %
30.04.2017 20:52 16,8 C 16,1 C 13,9 C 45 % 0 lf 1004,7 hPa 0,0 l/m 0 min 0 min 27 W/m 14,6 km/h (3 Bft) 97,87 %
30.04.2017 20:54 16,8 C 16,1 C 13,9 C 45 % 0 lf 1004,8 hPa 0,0 l/m 0 min 0 min 26 W/m 14,6 km/h (3 Bft) 97,87 %
30.04.2017 20:56 16,7 C 16,1 C 13,3 C 45 % 0 lf 1004,7 hPa 0,0 l/m 0 min 0 min 25 W/m 12,6 km/h (3 Bft) 97,87 %
30.04.2017 20:58 16,7 C 16,1 C 13,3 C 45 % 0 lf 1004,7 hPa 0,0 l/m 0 min 0 min 24 W/m 18,8 km/h (3 Bft) 95,65 %
30.04.2017 21:00 16,7 C 16,1 C 13,3 C 45 % 0 lf 1004,7 hPa 0,0 l/m 0 min 0 min 24 W/m 14,6 km/h (3 Bft) 97,87 %
30.04.2017 21:02 16,6 C 16,1 C 13,3 C 45 % 0 lf 1004,8 hPa 0,0 l/m 0 min 0 min 24 W/m 14,6 km/h (3 Bft) 93,62 %
30.04.2017 21:04 16,6 C 16,1 C 13,3 C 46 % 0 lf 1004,7 hPa 0,0 l/m 0 min 0 min 23 W/m 23,0 km/h (4 Bft) 97,87 %
30.04.2017 21:06 16,6 C 16,1 C 13,3 C 46 % 0 lf 1004,7 hPa 0,0 l/m 0 min 0 min 19 W/m 16,7 km/h (3 Bft) 97,83 %
30.04.2017 21:08 16,5 C 16,1 C 13,3 C 46 % 0 lf 1004,8 hPa 0,0 l/m 0 min 0 min 19 W/m 14,6 km/h (3 Bft) 97,87 %
30.04.2017 21:10 16,4 C 16,1 C 13,3 C 46 % 0 lf 1004,8 hPa 0,0 l/m 0 min 0 min 19 W/m 18,8 km/h (3 Bft) 95,65 %
30.04.2017 21:12 16,4 C 16,1 C 13,3 C 46 % 0 lf 1004,7 hPa 0,0 l/m 0 min 0 min 0 W/m 14,6 km/h (3 Bft) 95,74 %
30.04.2017 21:14 16,3 C 15,6 C 13,3 C 46 % 0 lf 1004,7 hPa 0,0 l/m 0 min 0 min 0 W/m 18,8 km/h (3 Bft) 95,74 %
30.04.2017 21:16 16,3 C 15,6 C 12,8 C 46 % 0 lf 1004,7 hPa 0,0 l/m 0 min 0 min 0 W/m 16,7 km/h (3 Bft) 95,74 %
30.04.2017 21:18 16,3 C 16,1 C 13,3 C 46 % 0 lf 1004,7 hPa 0,0 l/m 0 min 0 min 0 W/m 20,9 km/h (4 Bft) 95,74 %
30.04.2017 21:20 16,2 C 16,1 C 13,3 C 46 % 0 lf 1004,8 hPa 0,0 l/m 0 min 0 min 0 W/m 18,8 km/h (3 Bft) 93,62 %
30.04.2017 21:22 16,2 C 16,1 C 13,3 C 46 % 0 lf 1004,7 hPa 0,0 l/m 0 min 0 min 0 W/m 16,7 km/h (3 Bft) 93,48 %
30.04.2017 21:24 16,2 C 16,1 C 13,3 C 46 % 0 lf 1004,7 hPa 0,0 l/m 0 min 0 min 0 W/m 20,9 km/h (4 Bft) 95,74 %
30.04.2017 21:26 16,1 C 15,6 C 13,3 C 46 % 0 lf 1004,8 hPa 0,0 l/m 0 min 0 min 0 W/m 18,8 km/h (3 Bft) 95,74 %
30.04.2017 21:28 16,1 C 16,1 C 13,3 C 47 % 0 lf 1004,7 hPa 0,0 l/m 0 min 0 min 0 W/m 20,9 km/h (4 Bft) 91,49 %
30.04.2017 21:30 16,1 C 15,6 C 13,3 C 47 % 0 lf 1004,7 hPa 0,0 l/m 0 min 0 min 0 W/m 14,6 km/h (3 Bft) 100,00 %
30.04.2017 21:32 16,1 C 15,6 C 13,3 C 47 % 0 lf 1004,7 hPa 0,0 l/m 0 min 0 min 0 W/m 16,7 km/h (3 Bft) 97,87 %
30.04.2017 21:34 16,0 C 15,6 C 13,3 C 47 % 0 lf 1004,7 hPa 0,0 l/m 0 min 0 min 0 W/m 20,9 km/h (4 Bft) 95,65 %
30.04.2017 21:36 16,0 C 15,6 C 13,3 C 47 % 0 lf 1004,7 hPa 0,0 l/m 0 min 0 min 0 W/m 14,6 km/h (3 Bft) 95,74 %
30.04.2017 21:38 15,9 C 15,6 C 13,3 C 47 % 0 lf 1004,6 hPa 0,0 l/m 0 min 0 min 0 W/m 18,8 km/h (3 Bft) 95,74 %
30.04.2017 21:40 15,9 C 15,6 C 13,3 C 47 % 0 lf 1004,7 hPa 0,0 l/m 0 min 0 min 0 W/m 20,9 km/h (4 Bft) 97,87 %
30.04.2017 21:42 15,9 C 15,6 C 13,3 C 47 % 0 lf 1004,7 hPa 0,0 l/m 0 min 0 min 0 W/m 20,9 km/h (4 Bft) 97,87 %
30.04.2017 21:44 15,9 C 15,6 C 13,3 C 47 % 0 lf 1004,6 hPa 0,0 l/m 0 min 0 min 0 W/m 14,6 km/h (3 Bft) 91,30 %
30.04.2017 21:46 15,9 C 15,6 C 13,3 C 48 % 0 lf 1004,6 hPa 0,0 l/m 0 min 0 min 0 W/m 12,6 km/h (3 Bft) 93,62 %
30.04.2017 21:48 15,8 C 15,6 C 12,8 C 48 % 0 lf 1004,6 hPa 0,0 l/m 0 min 0 min 0 W/m 10,5 km/h (2 Bft) 91,67 %
30.04.2017 21:50 15,8 C 15,0 C 12,8 C 48 % 0 lf 1004,6 hPa 0,0 l/m 0 min 0 min 0 W/m 14,6 km/h (3 Bft) 95,74 %
30.04.2017 21:52 15,8 C 15,0 C 12,8 C 48 % 0 lf 1004,6 hPa 0,0 l/m 0 min 0 min 0 W/m 14,6 km/h (3 Bft) 93,62 %
30.04.2017 21:54 15,7 C 15,0 C 12,8 C 48 % 0 lf 1004,6 hPa 0,0 l/m 0 min 0 min 0 W/m 10,5 km/h (2 Bft) 97,87 %
30.04.2017 21:56 15,7 C 15,0 C 12,8 C 48 % 0 lf 1004,6 hPa 0,0 l/m 0 min 0 min 0 W/m 10,5 km/h (2 Bft) 97,83 %
30.04.2017 21:58 15,7 C 15,0 C 12,2 C 48 % 0 lf 1004,6 hPa 0,0 l/m 0 min 0 min 0 W/m 16,7 km/h (3 Bft) 95,74 %
30.04.2017 22:00 15,6 C 15,0 C 12,2 C 48 % 0 lf 1004,6 hPa 0,0 l/m 0 min 0 min 0 W/m 14,6 km/h (3 Bft) 97,87 %
30.04.2017 22:02 15,6 C 15,0 C 12,2 C 49 % 0 lf 1004,6 hPa 0,0 l/m 0 min 0 min 0 W/m 10,5 km/h (2 Bft) 93,62 %
30.04.2017 22:04 15,6 C 15,0 C 12,2 C 49 % 0 lf 1004,6 hPa 0,0 l/m 0 min 0 min 0 W/m 14,6 km/h (3 Bft) 97,87 %
30.04.2017 22:06 15,5 C 15,0 C 12,2 C 49 % 0 lf 1004,6 hPa 0,0 l/m 0 min 0 min 0 W/m 12,6 km/h (3 Bft) 97,87 %
30.04.2017 22:08 15,4 C 15,0 C 12,8 C 49 % 0 lf 1004,5 hPa 0,0 l/m 0 min 0 min 0 W/m 14,6 km/h (3 Bft) 95,65 %
30.04.2017 22:10 15,4 C 15,0 C 12,2 C 50 % 0 lf 1004,6 hPa 0,0 l/m 0 min 0 min 0 W/m 20,9 km/h (4 Bft) 95,74 %
30.04.2017 22:12 15,4 C 15,0 C 12,8 C 50 % 0 lf 1004,5 hPa 0,0 l/m 0 min 0 min 0 W/m 14,6 km/h (3 Bft) 95,74 %
30.04.2017 22:14 15,3 C 15,0 C 12,8 C 50 % 0 lf 1004,6 hPa 0,0 l/m 0 min 0 min 0 W/m 14,6 km/h (3 Bft) 93,62 %
30.04.2017 22:16 15,3 C 15,0 C 12,8 C 50 % 0 lf 1004,5 hPa 0,0 l/m 0 min 0 min 0 W/m 16,7 km/h (3 Bft) 93,62 %
30.04.2017 22:18 15,3 C 15,0 C 12,8 C 50 % 0 lf 1004,5 hPa 0,0 l/m 0 min 0 min 0 W/m 23,0 km/h (4 Bft) 95,74 %
30.04.2017 22:20 15,2 C 15,0 C 12,8 C 50 % 0 lf 1004,4 hPa 0,0 l/m 0 min 0 min 0 W/m 20,9 km/h (4 Bft) 95,65 %
30.04.2017 22:22 15,2 C 15,0 C 12,2 C 50 % 0 lf 1004,4 hPa 0,0 l/m 0 min 0 min 0 W/m 14,6 km/h (3 Bft) 95,74 %
30.04.2017 22:24 15,2 C 15,0 C 12,2 C 50 % 0 lf 1004,4 hPa 0,0 l/m 0 min 0 min 0 W/m 27,2 km/h (4 Bft) 93,62 %
30.04.2017 22:26 15,2 C 14,4 C 12,2 C 50 % 0 lf 1004,5 hPa 0,0 l/m 0 min 0 min 0 W/m 20,9 km/h (4 Bft) 95,74 %
30.04.2017 22:28 15,2 C 14,4 C 12,2 C 50 % 0 lf 1004,4 hPa 0,0 l/m 0 min 0 min 0 W/m 14,6 km/h (3 Bft) 95,74 %
30.04.2017 22:30 15,1 C 15,0 C 12,2 C 50 % 0 lf 1004,4 hPa 0,0 l/m 0 min 0 min 0 W/m 14,6 km/h (3 Bft) 95,74 %
30.04.2017 22:32 15,1 C 15,0 C 12,2 C 50 % 0 lf 1004,4 hPa 0,0 l/m 0 min 0 min 0 W/m 18,8 km/h (3 Bft) 95,65 %
30.04.2017 22:34 15,1 C 15,0 C 12,8 C 50 % 0 lf 1004,4 hPa 0,0 l/m 0 min 0 min 0 W/m 20,9 km/h (4 Bft) 93,62 %
30.04.2017 22:36 15,1 C 15,0 C 12,8 C 50 % 0 lf 1004,4 hPa 0,0 l/m 0 min 0 min 0 W/m 16,7 km/h (3 Bft) 93,62 %
30.04.2017 22:38 15,1 C 15,0 C 12,8 C 50 % 0 lf 1004,3 hPa 0,0 l/m 0 min 0 min 0 W/m 16,7 km/h (3 Bft) 97,87 %
30.04.2017 22:40 15,0 C 15,0 C 12,8 C 50 % 0 lf 1004,3 hPa 0,0 l/m 0 min 0 min 0 W/m 20,9 km/h (4 Bft) 95,74 %
30.04.2017 22:42 15,0 C 15,0 C 12,8 C 50 % 0 lf 1004,3 hPa 0,0 l/m 0 min 0 min 0 W/m 20,9 km/h (4 Bft) 93,48 %
30.04.2017 22:44 15,0 C 15,0 C 12,8 C 50 % 0 lf 1004,2 hPa 0,0 l/m 0 min 0 min 0 W/m 18,8 km/h (3 Bft) 93,62 %
30.04.2017 22:46 15,0 C 15,0 C 12,8 C 50 % 0 lf 1004,2 hPa 0,0 l/m 0 min 0 min 0 W/m 14,6 km/h (3 Bft) 95,74 %
30.04.2017 22:48 15,0 C 15,0 C 12,8 C 50 % 0 lf 1004,1 hPa 0,0 l/m 0 min 0 min 0 W/m 25,1 km/h (4 Bft) 97,87 %
30.04.2017 22:50 15,1 C 15,0 C 12,8 C 50 % 0 lf 1004,1 hPa 0,0 l/m 0 min 0 min 0 W/m 27,2 km/h (4 Bft) 95,74 %
30.04.2017 22:52 15,1 C 15,0 C 12,8 C 50 % 0 lf 1004,1 hPa 0,0 l/m 0 min 0 min 0 W/m 31,4 km/h (5 Bft) 91,49 %
30.04.2017 22:54 15,1 C 15,0 C 12,8 C 50 % 0 lf 1004,1 hPa 0,0 l/m 0 min 0 min 0 W/m 16,7 km/h (3 Bft) 93,48 %
30.04.2017 22:56 15,1 C 15,0 C 12,8 C 50 % 0 lf 1004,1 hPa 0,0 l/m 0 min 0 min 0 W/m 16,7 km/h (3 Bft) 93,62 %
30.04.2017 22:58 15,1 C 15,0 C 12,8 C 50 % 0 lf 1004,1 hPa 0,0 l/m 0 min 0 min 0 W/m 16,7 km/h (3 Bft) 93,62 %
30.04.2017 23:00 15,1 C 15,0 C 12,8 C 50 % 0 lf 1004,1 hPa 0,0 l/m 0 min 0 min 0 W/m 16,7 km/h (3 Bft) 95,74 %
30.04.2017 23:02 15,1 C 15,0 C 12,8 C 50 % 0 lf 1004,1 hPa 0,0 l/m 0 min 0 min 0 W/m 18,8 km/h (3 Bft) 95,74 %
30.04.2017 23:04 15,0 C 15,0 C 12,8 C 50 % 0 lf 1004,1 hPa 0,0 l/m 0 min 0 min 0 W/m 29,3 km/h (5 Bft) 95,74 %
30.04.2017 23:06 15,0 C 15,0 C 12,8 C 50 % 0 lf 1004,1 hPa 0,0 l/m 0 min 0 min 0 W/m 20,9 km/h (4 Bft) 95,65 %
30.04.2017 23:08 15,0 C 15,0 C 12,8 C 50 % 0 lf 1004,0 hPa 0,0 l/m 0 min 0 min 0 W/m 23,0 km/h (4 Bft) 97,87 %
30.04.2017 23:10 15,0 C 15,0 C 12,2 C 51 % 0 lf 1004,0 hPa 0,0 l/m 0 min 0 min 0 W/m 20,9 km/h (4 Bft) 97,87 %
30.04.2017 23:12 14,9 C 15,0 C 12,2 C 51 % 0 lf 1004,0 hPa 0,0 l/m 0 min 0 min 0 W/m 18,8 km/h (3 Bft) 93,62 %
30.04.2017 23:14 14,9 C 15,0 C 12,2 C 51 % 0 lf 1004,0 hPa 0,0 l/m 0 min 0 min 0 W/m 23,0 km/h (4 Bft) 97,87 %
30.04.2017 23:16 14,9 C 15,0 C 12,2 C 51 % 0 lf 1004,0 hPa 0,0 l/m 0 min 0 min 0 W/m 20,9 km/h (4 Bft) 95,74 %
30.04.2017 23:18 14,9 C 15,0 C 12,8 C 51 % 0 lf 1004,0 hPa 0,0 l/m 0 min 0 min 0 W/m 20,9 km/h (4 Bft) 95,65 %
30.04.2017 23:20 14,9 C 15,0 C 12,8 C 51 % 0 lf 1004,1 hPa 0,0 l/m 0 min 0 min 0 W/m 16,7 km/h (3 Bft) 95,74 %
30.04.2017 23:22 14,9 C 15,0 C 12,8 C 51 % 0 lf 1004,0 hPa 0,0 l/m 0 min 0 min 0 W/m 20,9 km/h (4 Bft) 97,87 %
30.04.2017 23:24 14,9 C 15,0 C 12,8 C 51 % 0 lf 1004,1 hPa 0,0 l/m 0 min 0 min 0 W/m 23,0 km/h (4 Bft) 93,62 %
30.04.2017 23:26 14,9 C 14,4 C 12,8 C 51 % 0 lf 1004,1 hPa 0,0 l/m 0 min 0 min 0 W/m 16,7 km/h (3 Bft) 97,87 %
30.04.2017 23:28 14,9 C 14,4 C 12,2 C 51 % 0 lf 1004,1 hPa 0,0 l/m 0 min 0 min 0 W/m 27,2 km/h (4 Bft) 95,74 %
30.04.2017 23:30 14,8 C 14,4 C 12,2 C 51 % 0 lf 1004,1 hPa 0,0 l/m 0 min 0 min 0 W/m 33,5 km/h (5 Bft) 97,83 %
30.04.2017 23:32 14,8 C 14,4 C 12,2 C 51 % 0 lf 1004,1 hPa 0,0 l/m 0 min 0 min 0 W/m 18,8 km/h (3 Bft) 100,00 %
30.04.2017 23:34 14,8 C 14,4 C 12,2 C 51 % 0 lf 1004,0 hPa 0,0 l/m 0 min 0 min 0 W/m 20,9 km/h (4 Bft) 100,00 %
30.04.2017 23:36 14,8 C 14,4 C 12,8 C 51 % 0 lf 1004,0 hPa 0,0 l/m 0 min 0 min 0 W/m 23,0 km/h (4 Bft) 100,00 %
30.04.2017 23:38 14,8 C 14,4 C 12,8 C 51 % 0 lf 1004,0 hPa 0,0 l/m 0 min 0 min 0 W/m 20,9 km/h (4 Bft) 97,87 %
30.04.2017 23:40 14,8 C 14,4 C 12,2 C 51 % 0 lf 1004,0 hPa 0,0 l/m 0 min 0 min 0 W/m 29,3 km/h (5 Bft) 100,00 %
30.04.2017 23:42 14,7 C 14,4 C 12,2 C 52 % 0 lf 1004,0 hPa 0,0 l/m 0 min 0 min 0 W/m 18,8 km/h (3 Bft) 100,00 %
30.04.2017 23:44 14,7 C 14,4 C 12,2 C 51 % 0 lf 1004,0 hPa 0,0 l/m 0 min 0 min 0 W/m 20,9 km/h (4 Bft) 97,87 %
30.04.2017 23:46 14,7 C 14,4 C 12,2 C 51 % 0 lf 1004,0 hPa 0,0 l/m 0 min 0 min 0 W/m 23,0 km/h (4 Bft) 100,00 %
30.04.2017 23:48 14,7 C 14,4 C 12,2 C 52 % 0 lf 1004,0 hPa 0,0 l/m 0 min 0 min 0 W/m 18,8 km/h (3 Bft) 95,74 %
30.04.2017 23:50 14,7 C 14,4 C 12,2 C 52 % 0 lf 1004,0 hPa 0,0 l/m 0 min 0 min 0 W/m 27,2 km/h (4 Bft) 100,00 %
30.04.2017 23:52 14,6 C 14,4 C 12,2 C 52 % 0 lf 1004,0 hPa 0,0 l/m 0 min 0 min 0 W/m 20,9 km/h (4 Bft) 100,00 %
30.04.2017 23:54 14,6 C 14,4 C 12,2 C 52 % 0 lf 1004,0 hPa 0,0 l/m 0 min 0 min 0 W/m 16,7 km/h (3 Bft) 97,83 %
30.04.2017 23:56 14,6 C 14,4 C 12,2 C 52 % 0 lf 1004,0 hPa 0,0 l/m 0 min 0 min 0 W/m 23,0 km/h (4 Bft) 100,00 %
30.04.2017 23:58 14,6 C 14,4 C 12,2 C 52 % 0 lf 1004,0 hPa 0,0 l/m 0 min 0 min 0 W/m 23,0 km/h (4 Bft) 97,87 %
_ Min-Zeit 05:58 04:52 05:02 15:42 00:00 23:08 - - - - 01:48 05:56
Minimum _ 3,4 C 2,8 C 0,0 C 39 % 0 lf 1004,0 hPa - - - - 2,1 km/h (1 Bft) 82,98 %
_ Max-Zeit 16:24 15:56 15:10 06:02 00:00 00:00 00:00 06:22 00:00 13:26 12:44 00:36
Maximum _ 19,7 C 24,4 C 27,2 C 78 % 0 lf 1015,5 hPa 0,0 l/m 2 min 0 min 1056 W/m 62,8 km/h
O (8 Bft)
100,00 %
Durchschnitt _ 12,4 C 14,0 C 11,9 C 56 % 0 lf 1009,8 hPa #0,0 l/m #14:08 h #0 min. 440 W/m 23,0 km/h (4 Bft) 96,34 %
© 2017 W. Hausmann